M I D A S
Marine Information and Data Acquisition System
Tripno 1890 of the Zeeleeuw from 2010-05-31 07:21:00 to 2010-05-31 11:38:17
Back to CruiseResearch ActivitiesStationsMapUnderway DataData graphs

EquipmentUnitsComment
TimeDGPSUTC
LatitudeDGPSDM.mWGS84
LongitudeDGPSDM.mWGS84
TemperatureSBE03/SBE38deg celciusITS90
ConductivitySBE21S/mITS90
SalinitySBE21 Practical Salinity Units
ChlorophylAChelsea fluorimeterg/lCalibrated in Aceton
Missing or incorrect values are displayed as -999
Sea surface data collected by the RV Zeeleeuw from 2010-05-31 06:51:01 to 2010-05-31 11:47:31
                                                                                    Next 1000 lines
Time Latitude Longitude Temperature Conductivity Salinity ChlorophylA
2010-05-31 06:51:12 51°13.66 2°55.96 20.2497 0.080561 0.434861 -1.000568
2010-05-31 06:51:16 51°13.661 2°55.959 20.2466 0.080561 0.434868 -1.035392
2010-05-31 06:51:21 51°13.66 2°55.959 20.2657 0.080561 0.434861 -1.035392
2010-05-31 06:51:27 51°13.661 2°55.958 20.3081 0.080561 0.434868 -1.035392
2010-05-31 06:51:32 51°13.661 2°55.958 20.2746 0.080561 0.434868 -1.035392
2010-05-31 06:51:36 51°13.661 2°55.958 20.2725 0.080561 0.434861 -1.000568
2010-05-31 06:51:41 51°13.661 2°55.958 20.257 0.080561 0.434868 -1.035392
2010-05-31 06:51:47 51°13.661 2°55.958 20.2556 0.080561 0.434875 -1.070216
2010-05-31 06:51:52 51°13.661 2°55.958 20.2546 0.080561 0.434875 -1.035392
2010-05-31 06:51:56 51°13.661 2°55.959 20.2575 0.080561 0.434875 -1.035392
2010-05-31 06:52:02 51°13.661 2°55.959 20.2542 0.080561 0.434875 -1.035392
2010-05-31 06:52:06 51°13.661 2°55.959 20.2557 0.080561 0.434882 -1.035392
2010-05-31 06:52:12 51°13.661 2°55.959 20.2547 0.080561 0.434882 -1.035392
2010-05-31 06:52:16 51°13.661 2°55.958 20.1459 0.080561 0.434889 -1.035392
2010-05-31 06:52:22 51°13.661 2°55.956 20.1962 0.080561 0.434889 -1.035392
2010-05-31 06:52:27 51°13.662 2°55.953 20.1878 0.080561 0.434889 -1.035392
2010-05-31 06:52:31 51°13.662 2°55.95 20.2173 0.080561 0.434896 -1.000568
2010-05-31 06:52:37 51°13.664 2°55.944 20.2069 0.080561 0.434896 -1.000568
2010-05-31 06:52:43 51°13.665 2°55.937 20.219 0.080561 0.434909 -1.035392
2010-05-31 06:52:48 51°13.667 2°55.929 20.2407 0.080561 0.434902 -1.035392
2010-05-31 06:52:54 51°13.669 2°55.92 20.265 0.080561 0.434909 -1.035392
2010-05-31 06:52:59 51°13.671 2°55.911 20.2683 0.080561 0.434909 -1.035392
2010-05-31 06:53:05 51°13.673 2°55.9 20.2626 0.080561 0.434902 -1.000568
2010-05-31 06:53:10 51°13.675 2°55.891 20.2606 0.080561 0.434916 -1.035392
2010-05-31 06:53:15 51°13.677 2°55.882 20.2654 0.080561 0.434909 -1.000568
2010-05-31 06:53:20 51°13.68 2°55.873 20.2628 0.080561 0.434909 -1.035392
2010-05-31 06:53:25 51°13.682 2°55.863 20.2619 0.080561 0.434909 -1.000568
2010-05-31 06:53:30 51°13.685 2°55.854 20.2499 0.080561 0.434923 -1.000568
2010-05-31 06:53:35 51°13.687 2°55.844 20.268 0.080561 0.434923 -1.000568
2010-05-31 06:53:40 51°13.691 2°55.833 20.2382 0.080561 0.434923 -1.035392
2010-05-31 06:53:45 51°13.694 2°55.823 20.2803 0.080561 0.434937 -1.000568
2010-05-31 06:53:50 51°13.698 2°55.813 20.2777 0.080561 0.43493 -1.000568
2010-05-31 06:53:55 51°13.702 2°55.803 20.2707 0.080561 0.434937 -1.035392
2010-05-31 06:54:00 51°13.706 2°55.793 20.2772 0.080561 0.434937 -1.035392
2010-05-31 06:54:05 51°13.71 2°55.782 20.2866 0.080561 0.434937 -1.035392
2010-05-31 06:54:10 51°13.715 2°55.773 20.282 0.080561 0.434937 -1.000568
2010-05-31 06:54:15 51°13.719 2°55.763 20.2896 0.080561 0.434944 -1.035392
2010-05-31 06:54:20 51°13.724 2°55.753 20.2859 0.080561 0.434944 -1.000568
2010-05-31 06:54:25 51°13.728 2°55.744 20.2875 0.080561 0.434944 -1.000568
2010-05-31 06:54:30 51°13.733 2°55.735 20.2856 0.080561 0.434944 -1.000568
2010-05-31 06:54:35 51°13.738 2°55.726 20.294 0.080561 0.434944 -1.000568
2010-05-31 06:54:40 51°13.742 2°55.718 20.2899 0.080561 0.434951 -1.035392
2010-05-31 06:54:45 51°13.747 2°55.71 20.2829 0.080561 0.434957 -1.035392
2010-05-31 06:54:50 51°13.752 2°55.703 20.2466 0.080561 0.434964 -1.000568
2010-05-31 06:54:55 51°13.757 2°55.696 20.2709 0.080561 0.434971 -1.000568
2010-05-31 06:55:00 51°13.763 2°55.689 20.2478 0.080561 0.434978 -1.035392
2010-05-31 06:55:05 51°13.769 2°55.683 20.3153 0.080561 0.434978 -1.035392
2010-05-31 06:55:10 51°13.775 2°55.678 20.3096 0.080561 0.434985 -1.000568
2010-05-31 06:55:15 51°13.779 2°55.675 20.2558 0.080561 0.434992 -1.070216
2010-05-31 06:55:20 51°13.782 2°55.672 20.1955 0.080561 0.434992 -1.000568
2010-05-31 06:55:25 51°13.785 2°55.67 20.1379 0.080561 0.434999 -1.035392
2010-05-31 06:55:30 51°13.788 2°55.668 20.123 0.080561 0.435012 -1.000568
2010-05-31 06:55:35 51°13.792 2°55.666 20.1652 0.080561 0.435012 -1.000568
2010-05-31 06:55:40 51°13.796 2°55.664 20.1746 0.080561 0.435012 -1.070216
2010-05-31 06:55:44 51°13.8 2°55.662 20.2282 0.080561 0.435019 -1.035392
2010-05-31 06:55:50 51°13.806 2°55.659 20.2272 0.080561 0.435012 -1.000568
2010-05-31 06:55:55 51°13.811 2°55.656 20.2368 0.080561 0.435026 -1.000568
2010-05-31 06:56:00 51°13.817 2°55.654 20.2438 0.080561 0.435026 -1.000568
2010-05-31 06:56:05 51°13.823 2°55.652 20.2596 0.080561 0.435019 -1.035392
2010-05-31 06:56:10 51°13.829 2°55.65 20.2549 0.080561 0.435019 -1.000568
2010-05-31 06:56:15 51°13.836 2°55.647 20.2122 0.080561 0.435026 -1.035392
2010-05-31 06:56:20 51°13.843 2°55.645 20.249 0.080561 0.435026 -1.000568
2010-05-31 06:56:25 51°13.85 2°55.642 20.216 0.080561 0.435033 -1.035392
2010-05-31 06:56:30 51°13.857 2°55.639 20.2622 0.080561 0.435033 -1.035392
2010-05-31 06:56:35 51°13.863 2°55.636 20.2772 0.080561 0.435033 -1.035392
2010-05-31 06:56:40 51°13.87 2°55.633 20.2652 0.080561 0.435026 -1.035392
2010-05-31 06:56:45 51°13.876 2°55.63 20.2763 0.080561 0.43504 -1.000568
2010-05-31 06:56:50 51°13.882 2°55.628 20.2647 0.080561 0.43504 -1.000568
2010-05-31 06:56:55 51°13.888 2°55.625 20.2689 0.080561 0.43504 -1.000568
2010-05-31 06:57:00 51°13.894 2°55.623 20.2749 0.080561 0.435054 -1.035392
2010-05-31 06:57:05 51°13.9 2°55.621 20.2737 0.080561 0.435054 -1.035392
2010-05-31 06:57:10 51°13.905 2°55.618 20.269 0.080561 0.435047 -1.000568
2010-05-31 06:57:15 51°13.91 2°55.617 20.2623 0.080561 0.435047 -1.035392
2010-05-31 06:57:20 51°13.915 2°55.615 20.2739 0.080561 0.435061 -1.000568
2010-05-31 06:57:25 51°13.92 2°55.614 20.2726 0.080561 0.435054 -1.035392
2010-05-31 06:57:30 51°13.925 2°55.613 20.277 0.080561 0.435054 -1.000568
2010-05-31 06:57:35 51°13.93 2°55.613 20.25 0.080561 0.435054 -1.000568
2010-05-31 06:57:40 51°13.935 2°55.613 20.2451 0.080561 0.435061 -1.035392
2010-05-31 06:57:45 51°13.939 2°55.614 20.251 0.080561 0.435061 -1.035392
2010-05-31 06:57:50 51°13.943 2°55.615 20.2354 0.080561 0.435074 -1.000568
2010-05-31 06:57:55 51°13.947 2°55.616 20.2402 0.080561 0.435088 -1.000568
2010-05-31 06:58:00 51°13.95 2°55.618 20.2125 0.080561 0.435088 -1.000568
2010-05-31 06:58:05 51°13.954 2°55.619 20.1947 0.080561 0.435088 -1.035392
2010-05-31 06:58:10 51°13.957 2°55.621 20.2106 0.080457 0.43452 -1.035392
2010-05-31 06:58:15 51°13.961 2°55.623 20.2227 0.080561 0.435116 -1.035392
2010-05-31 06:58:19 51°13.963 2°55.624 20.2021 0.080561 0.435123 -1.035392
2010-05-31 06:58:24 51°13.966 2°55.626 20.2228 0.080561 0.435129 -1.000568
2010-05-31 06:58:29 51°13.969 2°55.628 20.2562 0.080561 0.435129 -1.000568
2010-05-31 06:58:34 51°13.972 2°55.63 20.2848 0.080561 0.435129 -1.000568
2010-05-31 06:58:39 51°13.974 2°55.632 20.2956 0.080561 0.435136 -1.035392
2010-05-31 06:58:43 51°13.974 2°55.632 20.2794 0.080561 0.435136 -1.035392
2010-05-31 06:58:48 51°13.973 2°55.633 20.0891 0.080561 0.435136 -1.000568
2010-05-31 06:58:53 51°13.971 2°55.633 20.007 0.080561 0.435129 -1.000568
2010-05-31 06:58:58 51°13.969 2°55.632 19.9621 0.080561 0.435129 -1.000568
2010-05-31 06:59:03 51°13.966 2°55.631 19.986 0.080561 0.435116 -1.035392
2010-05-31 06:59:07 51°13.964 2°55.629 19.9928 0.080457 0.434534 -1.035392
2010-05-31 06:59:12 51°13.961 2°55.627 19.9215 0.080561 0.435116 -1.035392
2010-05-31 06:59:17 51°13.959 2°55.624 20.0299 0.080561 0.435129 -1.000568
2010-05-31 06:59:22 51°13.956 2°55.621 19.9218 0.080561 0.43515 -1.000568
2010-05-31 06:59:26 51°13.954 2°55.619 20.0675 0.080561 0.43515 -1.000568
2010-05-31 06:59:32 51°13.952 2°55.616 19.9883 0.080561 0.435157 -1.000568
2010-05-31 06:59:36 51°13.951 2°55.615 20.0815 0.080457 0.434609 -1.000568
2010-05-31 06:59:42 51°13.95 2°55.614 20.0822 0.080561 0.435191 -1.035392
2010-05-31 06:59:47 51°13.949 2°55.615 20.0377 0.080561 0.435191 -1.035392
2010-05-31 06:59:52 51°13.949 2°55.617 20.1062 0.080561 0.435185 -1.035392
2010-05-31 06:59:56 51°13.949 2°55.62 20.1338 0.080561 0.435185 -1.035392
2010-05-31 07:00:02 51°13.949 2°55.625 20.1431 0.080457 0.434609 -1.000568
2010-05-31 07:00:07 51°13.949 2°55.629 20.1472 0.080561 0.435185 -1.000568
2010-05-31 07:00:12 51°13.95 2°55.633 20.1805 0.080457 0.434609 -1.035392
2010-05-31 07:00:18 51°13.949 2°55.636 20.1814 0.080561 0.435205 -1.000568
2010-05-31 07:00:23 51°13.948 2°55.636 20.1599 0.080457 0.43463 -1.035392
2010-05-31 07:00:29 51°13.947 2°55.634 19.9472 0.080457 0.434637 -1.035392
2010-05-31 07:00:35 51°13.946 2°55.628 19.9503 0.080457 0.434637 -1.035392
2010-05-31 07:00:40 51°13.945 2°55.623 19.8626 0.080457 0.434623 -1.035392
2010-05-31 07:00:45 51°13.945 2°55.616 19.8607 0.080457 0.434603 -1.035392
2010-05-31 07:00:50 51°13.946 2°55.609 19.8809 0.080561 0.435178 -1.035392
2010-05-31 07:00:55 51°13.947 2°55.602 19.8957 0.080457 0.434623 -1.035392
2010-05-31 07:01:00 51°13.949 2°55.595 19.9102 0.080457 0.434623 -1.035392
2010-05-31 07:01:04 51°13.952 2°55.589 19.9586 0.080457 0.43463 -1.035392
2010-05-31 07:01:09 51°13.955 2°55.583 20.0187 0.080457 0.434664 -1.000568
2010-05-31 07:01:14 51°13.959 2°55.576 20.0376 0.080457 0.434678 -1.000568
2010-05-31 07:01:19 51°13.963 2°55.57 20.0535 0.080457 0.434699 -1.000568
2010-05-31 07:01:24 51°13.968 2°55.563 20.0855 0.080457 0.434699 -1.035392
2010-05-31 07:01:28 51°13.973 2°55.558 20.093 0.080457 0.434699 -1.035392
2010-05-31 07:01:33 51°13.98 2°55.552 20.1007 0.080457 0.434699 -1.035392
2010-05-31 07:01:38 51°13.987 2°55.545 20.1118 0.080457 0.434692 -1.035392
2010-05-31 07:01:43 51°13.994 2°55.537 20.118 0.080457 0.434692 -1.035392
2010-05-31 07:01:47 51°14 2°55.531 20.1039 0.080457 0.434692 -1.000568
2010-05-31 07:01:52 51°14.008 2°55.522 20.0999 0.080457 0.434699 -1.035392
2010-05-31 07:01:57 51°14.017 2°55.514 20.0968 0.080457 0.434699 -1.035392
2010-05-31 07:02:02 51°14.026 2°55.506 20.0735 0.080457 0.434699 -1.035392
2010-05-31 07:02:07 51°14.036 2°55.497 20.0898 0.080457 0.434706 -1.035392
2010-05-31 07:02:11 51°14.044 2°55.49 20.1022 0.080457 0.434713 -1.035392
2010-05-31 07:02:16 51°14.054 2°55.482 20.0723 0.080457 0.434719 -1.000568
2010-05-31 07:02:21 51°14.064 2°55.473 20.0877 0.080457 0.434719 -1.000568
2010-05-31 07:02:27 51°14.078 2°55.463 20.1329 0.080457 0.434719 -1.000568
2010-05-31 07:02:32 51°14.089 2°55.454 20.0967 0.080457 0.434719 -1.000568
2010-05-31 07:02:36 51°14.098 2°55.445 20.113 0.080457 0.43474 -1.000568
2010-05-31 07:02:41 51°14.109 2°55.436 20.083 0.080457 0.43474 -1.000568
2010-05-31 07:02:47 51°14.123 2°55.423 20.0333 0.080457 0.43474 -1.035392
2010-05-31 07:02:52 51°14.135 2°55.413 20.0821 0.080457 0.43474 -1.000568
2010-05-31 07:02:56 51°14.145 2°55.405 20.0691 0.080457 0.43474 -1.000568
2010-05-31 07:03:01 51°14.157 2°55.394 20.1039 0.080457 0.43474 -1.035392
2010-05-31 07:03:06 51°14.168 2°55.382 20.0437 0.080457 0.434754 -1.000568
2010-05-31 07:03:12 51°14.183 2°55.368 20.0812 0.080457 0.434754 -1.000568
2010-05-31 07:03:16 51°14.192 2°55.359 20.125 0.080457 0.434747 -1.000568
2010-05-31 07:03:22 51°14.207 2°55.343 20.0465 0.080457 0.434754 -1.035392
2010-05-31 07:03:27 51°14.219 2°55.33 20.0216 0.080457 0.434754 -1.035392
2010-05-31 07:03:31 51°14.228 2°55.32 20.0477 0.080457 0.434754 -1.035392
2010-05-31 07:03:37 51°14.243 2°55.304 19.9964 0.080457 0.434747 -1.000568
2010-05-31 07:03:42 51°14.255 2°55.291 19.992 0.080457 0.434754 -0.965744
2010-05-31 07:03:47 51°14.266 2°55.277 20.0271 0.080457 0.434761 -1.000568
2010-05-31 07:03:52 51°14.278 2°55.263 19.9829 0.080457 0.434761 -1.035392
2010-05-31 07:03:56 51°14.288 2°55.252 20.0507 0.080457 0.434761 -1.035392
2010-05-31 07:04:02 51°14.304 2°55.237 20.0876 0.080457 0.434761 -1.035392
2010-05-31 07:04:07 51°14.316 2°55.223 19.9565 0.080457 0.434768 -1.000568
2010-05-31 07:04:11 51°14.326 2°55.212 20.0968 0.080457 0.434768 -1.035392
2010-05-31 07:04:16 51°14.34 2°55.2 20.0081 0.080457 0.434775 -1.035392
2010-05-31 07:04:22 51°14.355 2°55.183 20.0011 0.080457 0.434768 -1.035392
2010-05-31 07:04:27 51°14.368 2°55.17 19.9377 0.080457 0.434768 -1.035392
2010-05-31 07:04:32 51°14.381 2°55.156 19.9588 0.080457 0.434775 -1.000568
2010-05-31 07:04:36 51°14.392 2°55.145 19.9467 0.080457 0.434788 -0.965744
2010-05-31 07:04:41 51°14.405 2°55.132 20.0109 0.080457 0.434775 -1.000568
2010-05-31 07:04:46 51°14.419 2°55.119 20.0165 0.080457 0.434788 -1.000568
2010-05-31 07:04:52 51°14.435 2°55.101 19.9499 0.080457 0.434781 -0.965744
2010-05-31 07:04:56 51°14.445 2°55.09 19.8843 0.080457 0.434781 -0.965744
2010-05-31 07:05:02 51°14.462 2°55.074 19.9565 0.080457 0.434795 -1.000568
2010-05-31 07:05:06 51°14.473 2°55.062 19.9749 0.080457 0.434775 -0.965744
2010-05-31 07:05:12 51°14.489 2°55.045 20.0242 0.080457 0.434809 -0.965744
2010-05-31 07:05:16 51°14.499 2°55.033 19.9907 0.080457 0.434809 -1.000568
2010-05-31 07:05:21 51°14.512 2°55.019 19.9815 0.080457 0.434816 -1.000568
2010-05-31 07:05:26 51°14.524 2°55.002 19.977 0.080457 0.434816 -1.000568
2010-05-31 07:05:32 51°14.538 2°54.978 19.924 0.080457 0.43483 -0.965744
2010-05-31 07:05:36 51°14.546 2°54.962 19.9131 0.080457 0.434816 -1.000568
2010-05-31 07:05:42 51°14.56 2°54.937 19.8799 0.080457 0.43483 -1.000568
2010-05-31 07:05:46 51°14.57 2°54.921 19.9027 0.080457 0.434795 -0.965744
2010-05-31 07:05:51 51°14.582 2°54.904 20.0903 0.080457 0.434768 -0.965744
2010-05-31 07:05:56 51°14.595 2°54.884 20.1154 0.080457 0.434809 -0.965744
2010-05-31 07:06:02 51°14.608 2°54.859 20.1004 0.080457 0.434809 -0.965744
2010-05-31 07:06:07 51°14.618 2°54.835 20.0555 0.080457 0.434836 -1.000568
2010-05-31 07:06:11 51°14.624 2°54.814 20.0302 0.080457 0.434843 -1.035392
2010-05-31 07:06:17 51°14.633 2°54.782 20.0309 0.080457 0.43485 -1.000568
2010-05-31 07:06:22 51°14.638 2°54.753 19.9756 0.080457 0.434864 -1.000568
2010-05-31 07:06:27 51°14.643 2°54.725 19.9472 0.080457 0.434864 -1.000568
2010-05-31 07:06:32 51°14.645 2°54.695 19.959 0.080457 0.434843 -1.000568
2010-05-31 07:06:36 51°14.647 2°54.67 20.0176 0.080457 0.434836 -0.965744
2010-05-31 07:06:41 51°14.647 2°54.639 19.9839 0.080457 0.434823 -1.000568
2010-05-31 07:06:46 51°14.646 2°54.609 19.9814 0.080457 0.434823 -0.965744
2010-05-31 07:06:51 51°14.642 2°54.578 19.9433 0.080457 0.434843 -1.000568
2010-05-31 07:06:56 51°14.637 2°54.549 19.9755 0.080457 0.434843 -1.000568
2010-05-31 07:07:02 51°14.628 2°54.514 19.9999 0.080457 0.434823 -1.000568
2010-05-31 07:07:07 51°14.62 2°54.486 19.9242 0.080457 0.43485 -1.000568
2010-05-31 07:07:11 51°14.611 2°54.465 20.0025 0.080457 0.434864 -1.000568
2010-05-31 07:07:16 51°14.6 2°54.44 19.9265 0.080457 0.434857 -0.965744
2010-05-31 07:07:21 51°14.586 2°54.417 19.9099 0.080457 0.434885 -0.965744
2010-05-31 07:07:27 51°14.57 2°54.389 19.8118 0.080457 0.434885 -0.965744
2010-05-31 07:07:32 51°14.556 2°54.365 19.9408 0.080457 0.434864 -1.000568
2010-05-31 07:07:36 51°14.546 2°54.345 19.8527 0.080457 0.434809 -0.965744
2010-05-31 07:07:41 51°14.532 2°54.323 19.8295 0.080457 0.43483 -1.000568
2010-05-31 07:07:47 51°14.517 2°54.291 19.9411 0.080457 0.434802 -1.000568
2010-05-31 07:07:51 51°14.508 2°54.271 19.8587 0.080457 0.434802 -0.965744
2010-05-31 07:07:56 51°14.494 2°54.247 19.9076 0.080457 0.434823 -1.000568
2010-05-31 07:08:02 51°14.481 2°54.214 19.9751 0.080457 0.434823 -1.000568
2010-05-31 07:08:06 51°14.469 2°54.196 19.9017 0.080457 0.434823 -0.965744
2010-05-31 07:08:11 51°14.458 2°54.169 20.0058 0.080457 0.43483 -1.000568
2010-05-31 07:08:16 51°14.447 2°54.143 19.8382 0.080457 0.434857 -1.000568
2010-05-31 07:08:22 51°14.431 2°54.113 19.9724 0.080457 0.434878 -0.965744
2010-05-31 07:08:26 51°14.423 2°54.09 19.8764 0.080457 0.434878 -0.965744
2010-05-31 07:08:32 51°14.407 2°54.06 19.9505 0.080457 0.434864 -0.965744
2010-05-31 07:08:36 51°14.399 2°54.038 19.8727 0.080457 0.434843 -1.000568
2010-05-31 07:08:42 51°14.384 2°54.007 19.9445 0.080457 0.434857 -1.000568
2010-05-31 07:08:47 51°14.372 2°53.98 19.9002 0.080457 0.434809 -1.000568
2010-05-31 07:08:52 51°14.36 2°53.954 19.9485 0.080457 0.43483 -1.000568
2010-05-31 07:08:56 51°14.35 2°53.933 19.9065 0.080457 0.43483 -1.000568
2010-05-31 07:09:02 51°14.336 2°53.901 19.9061 0.080457 0.43483 -0.965744
2010-05-31 07:09:07 51°14.324 2°53.875 19.9407 0.080457 0.434864 -0.965744
2010-05-31 07:09:11 51°14.315 2°53.854 19.9352 0.080457 0.43483 -1.000568
2010-05-31 07:09:16 51°14.302 2°53.828 19.9502 0.080457 0.434864 -0.965744
2010-05-31 07:09:21 51°14.291 2°53.801 19.9614 0.080457 0.434836 -0.965744
2010-05-31 07:09:27 51°14.277 2°53.769 19.8971 0.080457 0.434878 -1.000568
2010-05-31 07:09:32 51°14.265 2°53.743 19.9607 0.080457 0.434878 -1.000568
2010-05-31 07:09:36 51°14.255 2°53.721 19.8826 0.080457 0.434857 -0.965744
2010-05-31 07:09:42 51°14.241 2°53.689 19.9534 0.080457 0.434878 -0.93092
2010-05-31 07:09:46 51°14.232 2°53.667 19.8812 0.080457 0.434843 -0.965744
2010-05-31 07:09:51 51°14.219 2°53.642 19.9667 0.080457 0.43485 -1.000568
2010-05-31 07:09:56 51°14.209 2°53.614 19.9202 0.080457 0.43485 -1.000568
2010-05-31 07:10:02 51°14.194 2°53.583 19.9054 0.080457 0.434864 -1.000568
2010-05-31 07:10:06 51°14.185 2°53.562 19.9489 0.080457 0.434864 -1.000568
2010-05-31 07:10:11 51°14.173 2°53.534 19.8962 0.080457 0.434878 -1.000568
2010-05-31 07:10:16 51°14.161 2°53.508 19.9536 0.080457 0.434878 -0.965744
2010-05-31 07:10:22 51°14.148 2°53.475 19.9034 0.080457 0.434885 -0.965744
2010-05-31 07:10:26 51°14.138 2°53.454 19.9401 0.080457 0.434885 -0.965744
2010-05-31 07:10:32 51°14.123 2°53.423 19.9323 0.080457 0.434857 -1.000568
2010-05-31 07:10:36 51°14.114 2°53.401 19.9611 0.080457 0.434871 -0.965744
2010-05-31 07:10:42 51°14.099 2°53.37 19.9031 0.080457 0.434871 -1.000568
2010-05-31 07:10:47 51°14.086 2°53.344 19.959 0.080457 0.434905 -0.965744
2010-05-31 07:10:52 51°14.075 2°53.318 19.9198 0.080457 0.434905 -1.000568
2010-05-31 07:10:56 51°14.064 2°53.297 19.9318 0.080457 0.434905 -1.000568
2010-05-31 07:11:02 51°14.051 2°53.264 19.9365 0.080457 0.434912 -1.000568
2010-05-31 07:11:07 51°14.037 2°53.241 19.951 0.080457 0.434912 -0.965744
2010-05-31 07:11:11 51°14.028 2°53.218 19.9363 0.080457 0.434905 -0.965744
2010-05-31 07:11:16 51°14.015 2°53.192 19.9222 0.080457 0.434912 -1.000568
2010-05-31 07:11:22 51°14.001 2°53.16 19.9398 0.080353 0.434309 -0.965744
2010-05-31 07:11:27 51°13.988 2°53.135 19.9448 0.080353 0.434309 -0.965744
2010-05-31 07:11:31 51°13.978 2°53.114 19.9335 0.080457 0.434905 -0.965744
2010-05-31 07:11:36 51°13.965 2°53.088 19.9551 0.080457 0.434898 -0.965744
2010-05-31 07:11:42 51°13.951 2°53.057 19.9421 0.080457 0.434878 -0.965744
2010-05-31 07:11:47 51°13.938 2°53.031 19.9546 0.080457 0.434898 -1.000568
2010-05-31 07:11:51 51°13.929 2°53.009 19.954 0.080457 0.434878 -1.035392
2010-05-31 07:11:56 51°13.916 2°52.982 19.9479 0.080457 0.434878 -1.035392
2010-05-31 07:12:02 51°13.902 2°52.95 19.9473 0.080457 0.434885 -0.965744
2010-05-31 07:12:06 51°13.891 2°52.931 19.9527 0.080457 0.434885 -1.000568
2010-05-31 07:12:12 51°13.878 2°52.898 19.9686 0.080457 0.434878 -0.965744
2010-05-31 07:12:16 51°13.868 2°52.878 19.9367 0.080457 0.434898 -0.965744
2010-05-31 07:12:22 51°13.854 2°52.846 19.9746 0.080457 0.434898 -0.965744
2010-05-31 07:12:26 51°13.845 2°52.824 19.9442 0.080457 0.434898 -0.965744
2010-05-31 07:12:32 51°13.83 2°52.794 19.9636 0.080457 0.434954 -0.965744
2010-05-31 07:12:36 51°13.821 2°52.772 19.9514 0.080457 0.434933 -0.965744
2010-05-31 07:12:42 51°13.806 2°52.742 19.9687 0.080457 0.434954 -1.000568
2010-05-31 07:12:47 51°13.795 2°52.715 19.9618 0.080457 0.434919 -0.965744
2010-05-31 07:12:51 51°13.785 2°52.694 19.9612 0.080457 0.434898 -0.93092
2010-05-31 07:12:57 51°13.771 2°52.663 19.9697 0.080457 0.434892 -0.965744
2010-05-31 07:13:02 51°13.759 2°52.638 19.9668 0.080457 0.434892 -0.965744
2010-05-31 07:13:07 51°13.746 2°52.612 19.9741 0.080353 0.434316 -0.965744
2010-05-31 07:13:11 51°13.737 2°52.591 19.9705 0.080457 0.434871 -1.000568
2010-05-31 07:13:16 51°13.725 2°52.566 19.9682 0.080457 0.434898 -1.000568
2010-05-31 07:13:22 51°13.711 2°52.534 19.9682 0.080457 0.434885 -1.035392
2010-05-31 07:13:27 51°13.697 2°52.509 19.9724 0.080457 0.434885 -1.035392
2010-05-31 07:13:31 51°13.689 2°52.487 19.9789 0.080457 0.43494 -1.000568
2010-05-31 07:13:36 51°13.677 2°52.463 19.9611 0.080457 0.434933 -1.000568
2010-05-31 07:13:42 51°13.662 2°52.431 19.9895 0.080457 0.434967 -0.965744
2010-05-31 07:13:47 51°13.652 2°52.405 19.9677 0.080457 0.434933 -0.965744
2010-05-31 07:13:51 51°13.64 2°52.387 19.9759 0.080353 0.434412 -1.035392
2010-05-31 07:13:56 51°13.629 2°52.359 19.9873 0.080353 0.434412 -1.035392
2010-05-31 07:14:02 51°13.615 2°52.33 19.9826 0.080457 0.434954 -0.965744
2010-05-31 07:14:06 51°13.605 2°52.31 19.9819 0.080353 0.434392 -0.965744
2010-05-31 07:14:11 51°13.593 2°52.283 19.9827 0.080457 0.43494 -1.000568
2010-05-31 07:14:16 51°13.581 2°52.258 19.9808 0.080457 0.434947 -1.000568
2010-05-31 07:14:22 51°13.567 2°52.228 19.9859 0.080457 0.434926 -1.000568
2010-05-31 07:14:26 51°13.557 2°52.208 19.9838 0.080457 0.434926 -1.000568
2010-05-31 07:14:31 51°13.546 2°52.182 19.9864 0.080457 0.434919 -1.000568
2010-05-31 07:14:36 51°13.534 2°52.157 19.981 0.080457 0.434912 -0.965744
2010-05-31 07:14:42 51°13.519 2°52.127 19.9929 0.080457 0.434926 -0.965744
2010-05-31 07:14:46 51°13.51 2°52.105 19.9864 0.080457 0.434898 -0.965744
2010-05-31 07:14:51 51°13.497 2°52.081 19.9948 0.080457 0.434919 -0.965744
2010-05-31 07:14:56 51°13.486 2°52.054 19.9935 0.080457 0.434919 -1.000568
2010-05-31 07:15:02 51°13.471 2°52.026 19.9924 0.080457 0.434919 -1.000568
2010-05-31 07:15:07 51°13.461 2°51.998 19.9993 0.080457 0.434954 -1.000568
2010-05-31 07:15:11 51°13.45 2°51.979 19.9927 0.080457 0.434954 -0.965744
2010-05-31 07:15:16 51°13.438 2°51.953 20.0001 0.080457 0.434954 -0.965744
2010-05-31 07:15:22 51°13.423 2°51.924 20.0003 0.080457 0.435022 -0.965744
2010-05-31 07:15:27 51°13.411 2°51.899 20.0017 0.080457 0.435022 -0.965744
2010-05-31 07:15:31 51°13.402 2°51.878 20.0019 0.080457 0.434981 -0.965744
2010-05-31 07:15:36 51°13.388 2°51.855 20.0051 0.080457 0.435043 -0.965744
2010-05-31 07:15:42 51°13.375 2°51.824 20.0052 0.080457 0.434995 -0.965744
2010-05-31 07:15:47 51°13.361 2°51.801 20.0063 0.080457 0.435002 -0.965744
2010-05-31 07:15:51 51°13.351 2°51.781 20.0085 0.080457 0.434967 -1.000568
2010-05-31 07:15:56 51°13.34 2°51.757 20.0089 0.080457 0.434967 -1.000568
2010-05-31 07:16:01 51°13.329 2°51.735 20.0104 0.080457 0.434947 -1.000568
2010-05-31 07:16:07 51°13.316 2°51.707 20.012 0.080457 0.43496 -0.93092
2010-05-31 07:16:12 51°13.308 2°51.684 20.0122 0.080457 0.434947 -1.000568
2010-05-31 07:16:16 51°13.301 2°51.667 20.0164 0.080457 0.434967 -1.000568
2010-05-31 07:16:22 51°13.293 2°51.641 20.0174 0.080457 0.434974 -1.000568
2010-05-31 07:16:27 51°13.287 2°51.62 20.0161 0.080457 0.434974 -1.000568
2010-05-31 07:16:32 51°13.281 2°51.599 20.0195 0.080353 0.434412 -0.965744
2010-05-31 07:16:36 51°13.277 2°51.583 20.0194 0.080457 0.435002 -1.035392
2010-05-31 07:16:41 51°13.271 2°51.564 20.0211 0.080457 0.435022 -1.000568
2010-05-31 07:16:47 51°13.267 2°51.541 20.0236 0.080353 0.434433 -0.965744
2010-05-31 07:16:51 51°13.266 2°51.526 20.0254 0.080353 0.434433 -0.965744
2010-05-31 07:16:56 51°13.266 2°51.51 20.0261 0.080353 0.434433 -0.965744
2010-05-31 07:17:02 51°13.266 2°51.492 20.0264 0.080457 0.435009 -0.965744
2010-05-31 07:17:06 51°13.267 2°51.481 20.0288 0.080457 0.435002 -0.965744
2010-05-31 07:17:11 51°13.268 2°51.468 20.0297 0.080353 0.434412 -1.000568
2010-05-31 07:17:16 51°13.269 2°51.457 20.0314 0.080353 0.434426 -1.000568
2010-05-31 07:17:22 51°13.272 2°51.444 20.0322 0.080457 0.434988 -1.000568
2010-05-31 07:17:26 51°13.273 2°51.437 20.033 0.080457 0.434988 -1.000568
2010-05-31 07:17:31 51°13.276 2°51.428 20.0338 0.080353 0.434426 -0.965744
2010-05-31 07:17:36 51°13.278 2°51.42 20.0348 0.080457 0.435009 -1.000568
2010-05-31 07:17:42 51°13.281 2°51.411 20.0356 0.080353 0.434433 -0.965744
2010-05-31 07:17:47 51°13.284 2°51.405 20.038 0.080457 0.435016 -0.965744
2010-05-31 07:17:51 51°13.287 2°51.4 20.0382 0.080457 0.435022 -1.000568
2010-05-31 07:17:56 51°13.29 2°51.395 20.0406 0.080457 0.435022 -1.000568
2010-05-31 07:18:01 51°13.293 2°51.39 20.0414 0.080457 0.435043 -0.93092
2010-05-31 07:18:07 51°13.298 2°51.386 20.0427 0.080457 0.435036 -1.000568
2010-05-31 07:18:12 51°13.301 2°51.383 20.0432 0.080457 0.435036 -1.000568
2010-05-31 07:18:16 51°13.304 2°51.381 20.0446 0.080457 0.43505 -1.000568
2010-05-31 07:18:22 51°13.308 2°51.379 20.0462 0.080353 0.434467 -1.000568
2010-05-31 07:18:27 51°13.311 2°51.378 20.0466 0.080353 0.434461 -1.000568
2010-05-31 07:18:31 51°13.314 2°51.377 20.0476 0.080353 0.434461 -1.000568
2010-05-31 07:18:36 51°13.317 2°51.377 20.0485 0.080353 0.434467 -0.965744
2010-05-31 07:18:42 51°13.321 2°51.378 20.0493 0.080353 0.434474 -1.000568
2010-05-31 07:18:46 51°13.324 2°51.378 20.0494 0.080457 0.435036 -0.965744
2010-05-31 07:18:52 51°13.329 2°51.38 20.0516 0.080457 0.43505 -1.000568
2010-05-31 07:18:56 51°13.332 2°51.381 20.0517 0.080457 0.43505 -1.000568
2010-05-31 07:19:02 51°13.337 2°51.384 20.0523 0.080353 0.434467 -0.965744
2010-05-31 07:19:07 51°13.342 2°51.387 20.0534 0.080353 0.434474 -0.965744
2010-05-31 07:19:11 51°13.345 2°51.389 20.0543 0.080353 0.434488 -1.000568
2010-05-31 07:19:16 51°13.35 2°51.392 20.055 0.080353 0.434502 -0.965744
2010-05-31 07:19:21 51°13.355 2°51.395 20.0571 0.080353 0.434495 -0.965744
2010-05-31 07:19:27 51°13.361 2°51.399 20.0579 0.080353 0.434495 -0.965744
2010-05-31 07:19:31 51°13.365 2°51.402 20.0581 0.080457 0.435071 -0.965744
2010-05-31 07:19:36 51°13.371 2°51.405 20.0597 0.080353 0.434488 -0.965744
2010-05-31 07:19:42 51°13.378 2°51.408 20.0607 0.080457 0.435085 -0.965744
2010-05-31 07:19:47 51°13.384 2°51.411 20.062 0.080353 0.434502 -1.000568
2010-05-31 07:19:51 51°13.389 2°51.413 20.0612 0.080457 0.435057 -1.000568
2010-05-31 07:19:56 51°13.396 2°51.416 20.0626 0.080457 0.435057 -1.000568
2010-05-31 07:20:02 51°13.405 2°51.419 20.0635 0.080353 0.434509 -1.000568
2010-05-31 07:20:06 51°13.411 2°51.421 20.0652 0.080353 0.434509 -1.000568
2010-05-31 07:20:12 51°13.421 2°51.423 20.065 0.080353 0.434516 -0.965744
2010-05-31 07:20:16 51°13.427 2°51.425 20.0655 0.080353 0.434523 -0.965744
2010-05-31 07:20:22 51°13.437 2°51.427 20.0658 0.080353 0.434523 -0.965744
2010-05-31 07:20:27 51°13.446 2°51.428 20.0681 0.080457 0.435098 -0.965744
2010-05-31 07:20:32 51°13.453 2°51.429 20.0654 0.080457 0.435098 -0.965744
2010-05-31 07:20:36 51°13.459 2°51.429 20.0684 0.080353 0.434523 -1.000568
2010-05-31 07:20:41 51°13.465 2°51.429 20.0688 0.080353 0.434523 -1.000568
2010-05-31 07:20:47 51°13.471 2°51.429 20.0693 0.080353 0.434543 -1.000568
2010-05-31 07:20:52 51°13.476 2°51.43 20.0707 0.080457 0.435105 -1.000568
2010-05-31 07:20:56 51°13.479 2°51.429 20.0718 0.080457 0.435105 -1.000568
2010-05-31 07:21:02 51°13.482 2°51.43 20.0719 0.080457 0.435085 -1.000568
2010-05-31 07:21:07 51°13.485 2°51.431 20.0738 0.080353 0.434495 -1.000568
2010-05-31 07:21:12 51°13.488 2°51.431 20.0746 0.080353 0.434495 -1.000568
2010-05-31 07:21:16 51°13.489 2°51.432 20.0752 0.080353 0.434502 -1.000568
2010-05-31 07:21:21 51°13.491 2°51.434 20.0762 0.080353 0.434509 -1.000568
2010-05-31 07:21:27 51°13.492 2°51.435 20.0809 0.080353 0.434509 -1.000568
2010-05-31 07:21:31 51°13.492 2°51.435 20.0808 0.080457 0.435085 -0.965744
2010-05-31 07:21:37 51°13.493 2°51.436 20.0818 0.080353 0.434529 -0.965744
2010-05-31 07:21:42 51°13.493 2°51.437 20.0835 0.080353 0.434543 -0.965744
2010-05-31 07:21:47 51°13.494 2°51.438 20.084 0.080353 0.434536 -0.965744
2010-05-31 07:21:51 51°13.494 2°51.439 20.0849 0.080353 0.434543 -0.965744
2010-05-31 07:21:56 51°13.494 2°51.441 20.0849 0.080353 0.434543 -0.965744
2010-05-31 07:22:02 51°13.494 2°51.442 20.0864 0.080353 0.434564 -0.93092
2010-05-31 07:22:06 51°13.494 2°51.443 20.0843 0.080353 0.434564 -1.000568
2010-05-31 07:22:11 51°13.494 2°51.445 20.0861 0.080353 0.434571 -1.000568
2010-05-31 07:22:16 51°13.494 2°51.446 20.0907 0.080353 0.434578 -1.000568
2010-05-31 07:22:22 51°13.494 2°51.447 20.0921 0.080353 0.434585 -0.965744
2010-05-31 07:22:27 51°13.493 2°51.449 20.0896 0.080353 0.434585 -0.965744
2010-05-31 07:22:31 51°13.493 2°51.449 20.0943 0.080353 0.434571 -0.965744
2010-05-31 07:22:36 51°13.492 2°51.45 20.0953 0.080457 0.435147 -1.000568
2010-05-31 07:22:41 51°13.492 2°51.451 20.0925 0.080353 0.434564 -0.965744
2010-05-31 07:22:47 51°13.492 2°51.451 20.0982 0.080353 0.434564 -0.965744
2010-05-31 07:22:52 51°13.491 2°51.452 20.0958 0.080353 0.434557 -0.965744
2010-05-31 07:22:56 51°13.491 2°51.452 20.0968 0.080353 0.434557 -0.965744
2010-05-31 07:23:01 51°13.49 2°51.453 20.0946 0.080353 0.434557 -1.000568
2010-05-31 07:23:07 51°13.49 2°51.453 20.0997 0.080353 0.434564 -1.000568
2010-05-31 07:23:12 51°13.489 2°51.454 20.1004 0.080353 0.434557 -0.965744
2010-05-31 07:23:16 51°13.489 2°51.454 20.1018 0.080353 0.434564 -0.965744
2010-05-31 07:23:22 51°13.488 2°51.454 20.0999 0.080353 0.43455 -0.965744
2010-05-31 07:23:26 51°13.487 2°51.454 20.0998 0.080353 0.43455 -0.965744
2010-05-31 07:23:31 51°13.487 2°51.454 20.1011 0.080353 0.43455 -0.965744
2010-05-31 07:23:36 51°13.486 2°51.454 20.1041 0.080353 0.434564 -0.965744
2010-05-31 07:23:42 51°13.485 2°51.454 20.1049 0.080353 0.43455 -1.000568
2010-05-31 07:23:46 51°13.485 2°51.454 20.1085 0.080353 0.434564 -0.965744
2010-05-31 07:23:52 51°13.484 2°51.454 20.1071 0.080353 0.434557 -1.000568
2010-05-31 07:23:56 51°13.483 2°51.453 20.1111 0.080353 0.434578 -1.000568
2010-05-31 07:24:02 51°13.482 2°51.453 20.108 0.080353 0.434578 -1.000568
2010-05-31 07:24:06 51°13.481 2°51.453 20.1103 0.080353 0.434585 -0.965744
2010-05-31 07:24:12 51°13.48 2°51.453 20.1125 0.080353 0.434585 -0.965744
2010-05-31 07:24:16 51°13.479 2°51.453 20.112 0.080353 0.434564 -0.965744
2010-05-31 07:24:21 51°13.479 2°51.453 20.1103 0.080353 0.434564 -1.000568
2010-05-31 07:24:27 51°13.477 2°51.452 20.1132 0.080353 0.434564 -1.000568
2010-05-31 07:24:32 51°13.476 2°51.452 20.1158 0.080353 0.434564 -0.965744
2010-05-31 07:24:36 51°13.475 2°51.451 20.1112 0.080353 0.434571 -1.000568
2010-05-31 07:24:41 51°13.475 2°51.45 20.1144 0.080353 0.434571 -1.000568
2010-05-31 07:24:47 51°13.473 2°51.45 20.1119 0.080353 0.434578 -1.000568
2010-05-31 07:24:52 51°13.472 2°51.45 20.1147 0.080457 0.435153 -0.965744
2010-05-31 07:24:56 51°13.471 2°51.449 20.1213 0.080457 0.435153 -0.965744
2010-05-31 07:25:01 51°13.47 2°51.449 20.1137 0.080353 0.434578 -0.965744
2010-05-31 07:25:07 51°13.468 2°51.448 20.1132 0.080353 0.434591 -0.965744
2010-05-31 07:25:12 51°13.468 2°51.447 20.1171 0.080353 0.434598 -1.000568
2010-05-31 07:25:16 51°13.466 2°51.447 20.1167 0.080353 0.434619 -1.000568
2010-05-31 07:25:21 51°13.465 2°51.446 20.1218 0.080353 0.434619 -1.000568
2010-05-31 07:25:27 51°13.463 2°51.446 20.1191 0.080353 0.434619 -1.000568
2010-05-31 07:25:32 51°13.462 2°51.445 20.1255 0.080353 0.434605 -1.000568
2010-05-31 07:25:36 51°13.461 2°51.444 20.1251 0.080353 0.434585 -0.965744
2010-05-31 07:25:42 51°13.459 2°51.444 20.1233 0.080353 0.434591 -0.965744
2010-05-31 07:25:46 51°13.458 2°51.443 20.1231 0.080353 0.434591 -1.000568
2010-05-31 07:25:52 51°13.457 2°51.442 20.1262 0.080353 0.434591 -0.965744
2010-05-31 07:25:56 51°13.456 2°51.442 20.1279 0.080353 0.434591 -1.000568
2010-05-31 07:26:02 51°13.454 2°51.442 20.1324 0.080353 0.434591 -1.000568
2010-05-31 07:26:07 51°13.453 2°51.441 20.1321 0.080353 0.434612 -1.000568
2010-05-31 07:26:11 51°13.452 2°51.441 20.1317 0.080353 0.434598 -1.000568
2010-05-31 07:26:16 51°13.451 2°51.441 20.1334 0.080353 0.434619 -0.965744
2010-05-31 07:26:22 51°13.45 2°51.442 20.1286 0.080353 0.434612 -0.965744
2010-05-31 07:26:27 51°13.45 2°51.443 20.136 0.080353 0.434612 -0.965744
2010-05-31 07:26:31 51°13.449 2°51.444 20.1362 0.080353 0.434626 -0.965744
2010-05-31 07:26:36 51°13.449 2°51.447 20.1317 0.080353 0.434626 -0.965744
2010-05-31 07:26:42 51°13.449 2°51.451 20.1294 0.080353 0.434605 -0.965744
2010-05-31 07:26:47 51°13.449 2°51.456 20.1331 0.080353 0.434605 -1.000568
2010-05-31 07:26:51 51°13.449 2°51.46 20.127 0.080353 0.434598 -0.965744
2010-05-31 07:26:56 51°13.448 2°51.465 20.1313 0.080353 0.434598 -0.965744
2010-05-31 07:27:01 51°13.446 2°51.471 20.1334 0.080353 0.434612 -1.000568
2010-05-31 07:27:07 51°13.444 2°51.479 20.1328 0.080353 0.434626 -0.965744
2010-05-31 07:27:12 51°13.441 2°51.486 20.1349 0.080353 0.434647 -0.965744
2010-05-31 07:27:16 51°13.438 2°51.49 20.1357 0.080353 0.434653 -0.965744
2010-05-31 07:27:22 51°13.434 2°51.497 20.131 0.080353 0.43466 -1.000568
2010-05-31 07:27:26 51°13.429 2°51.501 20.1301 0.080353 0.43466 -1.000568
2010-05-31 07:27:32 51°13.423 2°51.507 20.1385 0.080353 0.434667 -1.000568
2010-05-31 07:27:36 51°13.418 2°51.508 20.1379 0.080353 0.434674 -1.000568
2010-05-31 07:27:41 51°13.411 2°51.512 20.131 0.080353 0.434695 -0.965744
2010-05-31 07:27:47 51°13.403 2°51.512 20.1326 0.080353 0.434688 -1.000568
2010-05-31 07:27:52 51°13.396 2°51.513 20.1376 0.080353 0.434695 -1.000568
2010-05-31 07:27:56 51°13.39 2°51.511 20.1351 0.080353 0.434695 -1.000568
2010-05-31 07:28:02 51°13.381 2°51.509 20.1419 0.080353 0.434688 -1.000568
2010-05-31 07:28:06 51°13.375 2°51.505 20.1411 0.080353 0.434695 -0.965744
2010-05-31 07:28:11 51°13.368 2°51.5 20.137 0.080353 0.434681 -1.000568
2010-05-31 07:28:16 51°13.361 2°51.494 20.1427 0.080353 0.434688 -1.000568
2010-05-31 07:28:22 51°13.352 2°51.484 20.1555 0.080353 0.434667 -0.965744
2010-05-31 07:28:26 51°13.347 2°51.477 20.1523 0.080353 0.434667 -0.965744
2010-05-31 07:28:31 51°13.34 2°51.468 20.1453 0.080353 0.43466 -1.000568
2010-05-31 07:28:36 51°13.332 2°51.458 20.1556 0.080353 0.434647 -1.000568
2010-05-31 07:28:42 51°13.323 2°51.442 20.1579 0.080353 0.43464 -1.000568
2010-05-31 07:28:47 51°13.315 2°51.429 20.1568 0.080353 0.434653 -0.965744
2010-05-31 07:28:51 51°13.309 2°51.416 20.1613 0.080353 0.434647 -0.965744
2010-05-31 07:28:56 51°13.302 2°51.399 20.1594 0.080353 0.434647 -0.965744
2010-05-31 07:29:02 51°13.292 2°51.378 20.1647 0.080353 0.434633 -1.000568
2010-05-31 07:29:07 51°13.284 2°51.36 20.1594 0.080353 0.43464 -1.000568
2010-05-31 07:29:11 51°13.276 2°51.345 20.1667 0.080353 0.434667 -1.000568
2010-05-31 07:29:16 51°13.267 2°51.324 20.1559 0.080353 0.434626 -1.000568
2010-05-31 07:29:21 51°13.256 2°51.305 20.1626 0.080353 0.43466 -0.965744
2010-05-31 07:29:27 51°13.244 2°51.278 20.1595 0.080353 0.43466 -1.000568
2010-05-31 07:29:32 51°13.233 2°51.257 20.1662 0.080353 0.43466 -1.000568
2010-05-31 07:29:36 51°13.226 2°51.237 20.1551 0.080353 0.43464 -0.965744
2010-05-31 07:29:41 51°13.213 2°51.216 20.1704 0.080353 0.434715 -0.965744
2010-05-31 07:29:46 51°13.203 2°51.191 20.1697 0.080353 0.43466 -1.000568
2010-05-31 07:29:52 51°13.188 2°51.163 20.1679 0.080353 0.434709 -0.965744
2010-05-31 07:29:56 51°13.181 2°51.142 20.1669 0.080353 0.434709 -0.965744
2010-05-31 07:30:02 51°13.167 2°51.113 20.1702 0.080353 0.434681 -1.000568
2010-05-31 07:30:07 51°13.157 2°51.086 20.1773 0.080353 0.434695 -1.000568
2010-05-31 07:30:12 51°13.147 2°51.06 20.1711 0.080353 0.434681 -1.000568
2010-05-31 07:30:16 51°13.139 2°51.038 20.1791 0.080353 0.434681 -1.000568
2010-05-31 07:30:22 51°13.128 2°51.006 20.1718 0.080353 0.434695 -0.965744
2010-05-31 07:30:26 51°13.119 2°50.985 20.1814 0.080353 0.434695 -0.965744
2010-05-31 07:30:31 51°13.111 2°50.956 20.1782 0.080353 0.434688 -0.965744
2010-05-31 07:30:36 51°13.101 2°50.931 20.1792 0.080353 0.434715 -1.000568
2010-05-31 07:30:41 51°13.093 2°50.902 20.1796 0.080353 0.434674 -1.000568
2010-05-31 07:30:47 51°13.08 2°50.87 20.1822 0.080353 0.434757 -1.000568
2010-05-31 07:30:51 51°13.075 2°50.847 20.1833 0.080353 0.434702 -0.965744
2010-05-31 07:30:56 51°13.065 2°50.82 20.1851 0.080353 0.434702 -0.965744
2010-05-31 07:31:01 51°13.056 2°50.792 20.1849 0.080353 0.434722 -1.000568
2010-05-31 07:31:07 51°13.045 2°50.759 20.1874 0.080353 0.434729 -1.000568
2010-05-31 07:31:12 51°13.036 2°50.731 20.1878 0.080353 0.434709 -1.000568
2010-05-31 07:31:16 51°13.029 2°50.709 20.1899 0.080353 0.434688 -0.965744
2010-05-31 07:31:22 51°13.018 2°50.675 20.1895 0.080353 0.434667 -1.000568
2010-05-31 07:31:27 51°13.008 2°50.648 20.192 0.080353 0.434667 -1.000568
2010-05-31 07:31:31 51°13.002 2°50.625 20.1933 0.080353 0.434688 -1.000568
2010-05-31 07:31:36 51°12.992 2°50.597 20.1943 0.080353 0.434681 -1.000568
2010-05-31 07:31:41 51°12.984 2°50.569 20.1964 0.080353 0.434695 -0.965744
2010-05-31 07:31:47 51°12.973 2°50.535 20.196 0.080353 0.434709 -1.000568
2010-05-31 07:31:52 51°12.964 2°50.507 20.1979 0.080353 0.434715 -0.965744
2010-05-31 07:31:56 51°12.956 2°50.485 20.1992 0.080353 0.434715 -0.965744
2010-05-31 07:32:02 51°12.945 2°50.453 20.2011 0.080353 0.434688 -0.965744
2010-05-31 07:32:07 51°12.937 2°50.423 20.2019 0.080353 0.434757 -1.000568
2010-05-31 07:32:11 51°12.931 2°50.4 20.2032 0.080353 0.434709 -1.000568
2010-05-31 07:32:16 51°12.922 2°50.373 20.2056 0.080353 0.434743 -0.965744
2010-05-31 07:32:21 51°12.914 2°50.344 20.2055 0.080353 0.434709 -1.000568
2010-05-31 07:32:26 51°12.905 2°50.316 20.2072 0.080353 0.434709 -1.000568
2010-05-31 07:32:31 51°12.897 2°50.288 20.2083 0.080353 0.434743 -1.000568
2010-05-31 07:32:36 51°12.887 2°50.259 20.2091 0.080353 0.434715 -0.965744
2010-05-31 07:32:41 51°12.879 2°50.23 20.2104 0.080353 0.434695 -1.000568
2010-05-31 07:32:46 51°12.869 2°50.202 20.2112 0.080353 0.434695 -0.965744
2010-05-31 07:32:51 51°12.86 2°50.174 20.2126 0.080353 0.434695 -0.965744
2010-05-31 07:32:56 51°12.851 2°50.145 20.214 0.080353 0.434695 -1.000568
2010-05-31 07:33:01 51°12.842 2°50.116 20.2138 0.080353 0.434695 -1.000568
2010-05-31 07:33:07 51°12.829 2°50.083 20.2168 0.080353 0.434695 -1.000568
2010-05-31 07:33:11 51°12.822 2°50.06 20.2173 0.080353 0.434695 -1.000568
2010-05-31 07:33:16 51°12.812 2°50.033 20.2193 0.080353 0.434736 -1.000568
2010-05-31 07:33:22 51°12.801 2°49.999 20.22 0.080353 0.434715 -0.965744
2010-05-31 07:33:27 51°12.792 2°49.971 20.2218 0.080353 0.434715 -0.965744
2010-05-31 07:33:31 51°12.784 2°49.949 20.2224 0.080353 0.434736 -0.965744
2010-05-31 07:33:36 51°12.775 2°49.92 20.2236 0.080353 0.434736 -1.000568
2010-05-31 07:33:41 51°12.765 2°49.893 20.2246 0.080353 0.434729 -1.000568
2010-05-31 07:33:47 51°12.754 2°49.858 20.2257 0.080353 0.434709 -1.000568
2010-05-31 07:33:52 51°12.744 2°49.831 20.2283 0.080353 0.434736 -1.000568
2010-05-31 07:33:56 51°12.737 2°49.807 20.2276 0.080353 0.434736 -1.000568
2010-05-31 07:34:02 51°12.725 2°49.775 20.2302 0.080353 0.434715 -0.965744
2010-05-31 07:34:06 51°12.718 2°49.751 20.2308 0.080353 0.434736 -0.965744
2010-05-31 07:34:12 51°12.706 2°49.719 20.2326 0.080353 0.434743 -1.000568
2010-05-31 07:34:16 51°12.699 2°49.695 20.2337 0.080353 0.434736 -1.000568
2010-05-31 07:34:21 51°12.69 2°49.667 20.2345 0.080353 0.434729 -0.965744
2010-05-31 07:34:27 51°12.679 2°49.634 20.2362 0.080353 0.434729 -0.965744
2010-05-31 07:34:32 51°12.669 2°49.606 20.2381 0.080353 0.434771 -1.000568
2010-05-31 07:34:36 51°12.663 2°49.582 20.2387 0.080353 0.434722 -1.000568
2010-05-31 07:34:42 51°12.651 2°49.55 20.2393 0.080353 0.434764 -1.000568
2010-05-31 07:34:46 51°12.644 2°49.527 20.2411 0.080353 0.434743 -0.965744
2010-05-31 07:34:51 51°12.635 2°49.499 20.2424 0.080353 0.434764 -0.965744
2010-05-31 07:34:56 51°12.626 2°49.47 20.2428 0.080353 0.434743 -0.965744
2010-05-31 07:35:01 51°12.615 2°49.444 20.2451 0.080353 0.434743 -0.965744
2010-05-31 07:35:06 51°12.607 2°49.415 20.2456 0.080353 0.434743 -1.000568
2010-05-31 07:35:11 51°12.597 2°49.388 20.2482 0.080353 0.434764 -1.000568
2010-05-31 07:35:16 51°12.587 2°49.358 20.2487 0.080353 0.434743 -1.000568
2010-05-31 07:35:21 51°12.578 2°49.331 20.25 0.080353 0.434777 -1.000568
2010-05-31 07:35:27 51°12.567 2°49.298 20.2521 0.080353 0.434777 -1.000568
2010-05-31 07:35:31 51°12.56 2°49.275 20.2513 0.080353 0.434791 -1.000568
2010-05-31 07:35:36 51°12.552 2°49.246 20.2545 0.080353 0.43475 -0.965744
2010-05-31 07:35:42 51°12.539 2°49.214 20.2539 0.080353 0.434791 -0.965744
2010-05-31 07:35:47 51°12.531 2°49.185 20.2562 0.080353 0.434757 -0.965744
2010-05-31 07:35:51 51°12.524 2°49.163 20.2576 0.080353 0.434771 -0.965744
2010-05-31 07:35:56 51°12.515 2°49.136 20.2578 0.080353 0.434771 -0.965744
2010-05-31 07:36:01 51°12.505 2°49.107 20.261 0.080353 0.434771 -0.965744
2010-05-31 07:36:07 51°12.494 2°49.073 20.2565 0.080353 0.434791 -1.000568
2010-05-31 07:36:11 51°12.488 2°49.052 20.2635 0.080353 0.434771 -1.000568
2010-05-31 07:36:16 51°12.477 2°49.026 20.2604 0.080353 0.434805 -1.000568
2010-05-31 07:36:21 51°12.469 2°48.997 20.2656 0.080353 0.434798 -0.965744
2010-05-31 07:36:27 51°12.457 2°48.964 20.2664 0.080353 0.434805 -1.000568
2010-05-31 07:36:32 51°12.448 2°48.937 20.2666 0.080353 0.434805 -1.000568
2010-05-31 07:36:36 51°12.44 2°48.914 20.2668 0.080353 0.434805 -1.000568
2010-05-31 07:36:42 51°12.429 2°48.882 20.2695 0.080353 0.434798 -0.965744
2010-05-31 07:36:46 51°12.42 2°48.86 20.2696 0.080353 0.434805 -1.000568
2010-05-31 07:36:52 51°12.41 2°48.826 20.2717 0.080353 0.434784 -0.965744
2010-05-31 07:36:56 51°12.402 2°48.804 20.274 0.080353 0.434784 -0.965744
2010-05-31 07:37:01 51°12.393 2°48.777 20.272 0.080353 0.434791 -0.965744
2010-05-31 07:37:07 51°12.382 2°48.743 20.2745 0.080353 0.434771 -0.965744
2010-05-31 07:37:11 51°12.373 2°48.722 20.2752 0.080353 0.434812 -0.965744
2010-05-31 07:37:16 51°12.365 2°48.693 20.2786 0.080353 0.434791 -0.965744
2010-05-31 07:37:22 51°12.353 2°48.661 20.2784 0.080353 0.434819 -1.000568
2010-05-31 07:37:27 51°12.344 2°48.632 20.2825 0.080353 0.434819 -1.000568
2010-05-31 07:37:31 51°12.336 2°48.61 20.2801 0.080353 0.434826 -1.035392
2010-05-31 07:37:36 51°12.327 2°48.582 20.2852 0.080353 0.434771 -1.000568
2010-05-31 07:37:42 51°12.317 2°48.548 20.2789 0.080353 0.434805 -1.000568
2010-05-31 07:37:47 51°12.307 2°48.521 20.2898 0.080353 0.434805 -1.000568
2010-05-31 07:37:51 51°12.299 2°48.499 20.2846 0.080353 0.434798 -1.000568
2010-05-31 07:37:56 51°12.291 2°48.47 20.2898 0.080353 0.434798 -1.000568
2010-05-31 07:38:02 51°12.278 2°48.437 20.2888 0.080353 0.434853 -0.965744
2010-05-31 07:38:07 51°12.271 2°48.408 20.2935 0.080353 0.434826 -1.000568
2010-05-31 07:38:11 51°12.261 2°48.387 20.2937 0.080353 0.43486 -1.000568
2010-05-31 07:38:16 51°12.254 2°48.358 20.2939 0.080353 0.434819 -1.000568
2010-05-31 07:38:21 51°12.244 2°48.331 20.2966 0.080353 0.434846 -1.000568
2010-05-31 07:38:27 51°12.233 2°48.297 20.2958 0.080353 0.434846 -1.000568
2010-05-31 07:38:31 51°12.226 2°48.274 20.2946 0.080353 0.434812 -0.965744
2010-05-31 07:38:36 51°12.217 2°48.247 20.2993 0.080353 0.434812 -1.000568
2010-05-31 07:38:41 51°12.207 2°48.219 20.2989 0.080353 0.434819 -0.965744
2010-05-31 07:38:47 51°12.196 2°48.185 20.3008 0.080353 0.434798 -0.965744
2010-05-31 07:38:51 51°12.189 2°48.163 20.3011 0.080353 0.434805 -0.965744
2010-05-31 07:38:56 51°12.18 2°48.135 20.3019 0.080353 0.434805 -0.965744
2010-05-31 07:39:01 51°12.171 2°48.106 20.3053 0.080353 0.434826 -1.000568
2010-05-31 07:39:07 51°12.16 2°48.073 20.305 0.080353 0.434826 -1.035392
2010-05-31 07:39:12 51°12.151 2°48.045 20.3069 0.080353 0.43484 -0.965744
2010-05-31 07:39:16 51°12.142 2°48.023 20.3087 0.080353 0.434853 -0.965744
2010-05-31 07:39:22 51°12.133 2°47.988 20.3095 0.080353 0.434833 -0.965744
2010-05-31 07:39:27 51°12.122 2°47.961 20.3081 0.080353 0.434833 -0.965744
2010-05-31 07:39:31 51°12.117 2°47.937 20.3127 0.080249 0.434284 -1.000568
2010-05-31 07:39:37 51°12.104 2°47.905 20.3116 0.080353 0.434867 -1.000568
2010-05-31 07:39:42 51°12.095 2°47.877 20.3143 0.080353 0.434833 -0.965744
2010-05-31 07:39:47 51°12.085 2°47.849 20.3159 0.080353 0.434853 -1.000568
2010-05-31 07:39:51 51°12.079 2°47.826 20.3167 0.080353 0.434819 -1.000568
2010-05-31 07:39:56 51°12.069 2°47.799 20.3205 0.080353 0.434846 -0.965744
2010-05-31 07:40:02 51°12.058 2°47.764 20.3177 0.080353 0.434846 -0.965744
2010-05-31 07:40:07 51°12.049 2°47.736 20.321 0.080353 0.434846 -0.965744
2010-05-31 07:40:11 51°12.041 2°47.714 20.3189 0.080249 0.434298 -1.000568
2010-05-31 07:40:16 51°12.033 2°47.685 20.3212 0.080249 0.43427 -1.000568
2010-05-31 07:40:22 51°12.02 2°47.653 20.3271 0.080249 0.434291 -1.000568
2010-05-31 07:40:27 51°12.012 2°47.623 20.325 0.080249 0.434291 -1.000568
2010-05-31 07:40:31 51°12.004 2°47.602 20.3293 0.080353 0.434846 -1.000568
2010-05-31 07:40:36 51°11.995 2°47.573 20.3246 0.080353 0.434888 -1.000568
2010-05-31 07:40:41 51°11.987 2°47.544 20.3327 0.080353 0.43486 -1.000568
2010-05-31 07:40:47 51°11.976 2°47.51 20.3235 0.080353 0.434888 -0.965744
2010-05-31 07:40:51 51°11.969 2°47.487 20.3374 0.080353 0.434909 -0.965744
2010-05-31 07:40:56 51°11.958 2°47.46 20.3217 0.080353 0.434909 -0.965744
2010-05-31 07:41:01 51°11.952 2°47.43 20.3371 0.080249 0.434298 -1.000568
2010-05-31 07:41:06 51°11.94 2°47.403 20.3351 0.080353 0.434929 -1.000568
2010-05-31 07:41:11 51°11.932 2°47.374 20.3362 0.080249 0.434312 -1.000568
2010-05-31 07:41:16 51°11.922 2°47.347 20.3359 0.080353 0.434909 -1.000568
2010-05-31 07:41:21 51°11.913 2°47.318 20.3351 0.080249 0.434318 -0.965744
2010-05-31 07:41:26 51°11.904 2°47.29 20.3415 0.080249 0.434318 -0.965744
2010-05-31 07:41:32 51°11.894 2°47.255 20.3394 0.080249 0.434318 -1.000568
2010-05-31 07:41:36 51°11.886 2°47.233 20.3392 0.080353 0.434888 -0.965744
2010-05-31 07:41:41 51°11.878 2°47.205 20.3448 0.080353 0.434874 -0.965744
2010-05-31 07:41:47 51°11.865 2°47.172 20.3426 0.080249 0.434312 -1.000568
2010-05-31 07:41:52 51°11.857 2°47.143 20.3459 0.080353 0.43486 -0.965744
2010-05-31 07:41:56 51°11.849 2°47.121 20.349 0.080353 0.434888 -1.000568
2010-05-31 07:42:02 51°11.838 2°47.087 20.3481 0.080353 0.434888 -1.000568
2010-05-31 07:42:07 51°11.829 2°47.058 20.3434 0.080249 0.434312 -0.965744
2010-05-31 07:42:11 51°11.821 2°47.037 20.3498 0.080353 0.434895 -0.965744
2010-05-31 07:42:16 51°11.812 2°47.008 20.3511 0.080353 0.434909 -0.965744
2010-05-31 07:42:22 51°11.8 2°46.974 20.3532 0.080353 0.434902 -0.965744
2010-05-31 07:42:27 51°11.791 2°46.946 20.3537 0.080353 0.434902 -0.965744
2010-05-31 07:42:32 51°11.781 2°46.918 20.3535 0.080353 0.434888 -1.000568
2010-05-31 07:42:36 51°11.774 2°46.895 20.3565 0.080353 0.434895 -0.965744
2010-05-31 07:42:42 51°11.763 2°46.861 20.3579 0.080353 0.434888 -1.000568
2010-05-31 07:42:47 51°11.754 2°46.832 20.3576 0.080249 0.434298 -1.035392
2010-05-31 07:42:51 51°11.747 2°46.809 20.3614 0.080249 0.434305 -1.000568
2010-05-31 07:42:56 51°11.737 2°46.782 20.3604 0.080249 0.434305 -1.000568
2010-05-31 07:43:01 51°11.73 2°46.751 20.3652 0.080249 0.434298 -1.000568
2010-05-31 07:43:06 51°11.718 2°46.725 20.3589 0.080353 0.434902 -1.000568
2010-05-31 07:43:11 51°11.711 2°46.695 20.3649 0.080249 0.434298 -0.965744
2010-05-31 07:43:16 51°11.7 2°46.669 20.3687 0.080353 0.434943 -1.000568
2010-05-31 07:43:21 51°11.692 2°46.639 20.368 0.080353 0.434902 -1.000568
2010-05-31 07:43:26 51°11.682 2°46.612 20.3706 0.080353 0.434902 -1.000568
2010-05-31 07:43:31 51°11.673 2°46.584 20.3671 0.080249 0.434367 -1.000568
2010-05-31 07:43:36 51°11.664 2°46.556 20.3763 0.080353 0.434915 -0.965744
2010-05-31 07:43:41 51°11.655 2°46.527 20.3683 0.080249 0.43436 -1.000568
2010-05-31 07:43:46 51°11.647 2°46.499 20.3775 0.080249 0.434339 -0.965744
2010-05-31 07:43:51 51°11.637 2°46.471 20.3721 0.080249 0.434318 -1.000568
2010-05-31 07:43:56 51°11.628 2°46.444 20.3767 0.080249 0.434318 -1.000568
2010-05-31 07:44:01 51°11.618 2°46.416 20.3756 0.080249 0.434367 -1.000568
2010-05-31 07:44:07 51°11.608 2°46.381 20.3771 0.080249 0.434332 -0.965744
2010-05-31 07:44:12 51°11.598 2°46.353 20.3756 0.080249 0.434346 -0.965744
2010-05-31 07:44:16 51°11.591 2°46.331 20.3798 0.080249 0.434353 -0.965744
2010-05-31 07:44:22 51°11.58 2°46.298 20.3806 0.080249 0.434353 -0.965744
2010-05-31 07:44:27 51°11.571 2°46.269 20.3806 0.080249 0.434353 -0.965744
2010-05-31 07:44:31 51°11.563 2°46.247 20.3823 0.080353 0.434915 -0.965744
2010-05-31 07:44:36 51°11.555 2°46.218 20.3865 0.080249 0.434339 -0.965744
2010-05-31 07:44:42 51°11.543 2°46.185 20.3825 0.080249 0.434367 -1.000568
2010-05-31 07:44:47 51°11.534 2°46.157 20.3869 0.080249 0.434332 -0.965744
2010-05-31 07:44:52 51°11.525 2°46.129 20.3858 0.080353 0.434922 -0.965744
2010-05-31 07:44:56 51°11.518 2°46.107 20.3933 0.080353 0.434922 -0.965744
2010-05-31 07:45:02 51°11.506 2°46.073 20.3906 0.080249 0.434367 -1.000568
2010-05-31 07:45:07 51°11.498 2°46.044 20.393 0.080249 0.434339 -1.000568
2010-05-31 07:45:11 51°11.49 2°46.022 20.3936 0.080353 0.434936 -1.000568
2010-05-31 07:45:16 51°11.481 2°45.993 20.3949 0.080249 0.43436 -0.965744
2010-05-31 07:45:21 51°11.471 2°45.966 20.3986 0.080249 0.434394 -1.000568
2010-05-31 07:45:26 51°11.462 2°45.937 20.3878 0.080249 0.434394 -1.000568
2010-05-31 07:45:31 51°11.454 2°45.909 20.4028 0.080249 0.43436 -0.965744
2010-05-31 07:45:36 51°11.443 2°45.882 20.3937 0.080249 0.434408 -0.965744
2010-05-31 07:45:41 51°11.436 2°45.852 20.4017 0.080249 0.434346 -1.000568
2010-05-31 07:45:46 51°11.424 2°45.825 20.4025 0.080249 0.434394 -1.000568
2010-05-31 07:45:52 51°11.414 2°45.791 20.4001 0.080249 0.434367 -1.000568
2010-05-31 07:45:56 51°11.406 2°45.768 20.403 0.080249 0.434367 -1.000568
2010-05-31 07:46:01 51°11.398 2°45.74 20.4057 0.080353 0.434943 -1.000568
2010-05-31 07:46:06 51°11.387 2°45.712 20.4061 0.080249 0.434374 -0.93092
2010-05-31 07:46:11 51°11.379 2°45.683 20.406 0.080249 0.434346 -1.000568
2010-05-31 07:46:16 51°11.369 2°45.656 20.4089 0.080249 0.434374 -0.965744
2010-05-31 07:46:21 51°11.36 2°45.626 20.4092 0.080249 0.434353 -1.000568
2010-05-31 07:46:26 51°11.35 2°45.599 20.4099 0.080249 0.434353 -1.000568
2010-05-31 07:46:31 51°11.342 2°45.57 20.4103 0.080249 0.43436 -1.000568
2010-05-31 07:46:36 51°11.332 2°45.543 20.4141 0.080249 0.434381 -1.000568
2010-05-31 07:46:41 51°11.323 2°45.513 20.4131 0.080249 0.43436 -0.965744
2010-05-31 07:46:47 51°11.311 2°45.48 20.4168 0.080249 0.434374 -1.000568
2010-05-31 07:46:51 51°11.304 2°45.458 20.4154 0.080249 0.434367 -1.000568
2010-05-31 07:46:56 51°11.295 2°45.429 20.4203 0.080249 0.434367 -1.000568
2010-05-31 07:47:02 51°11.283 2°45.395 20.4213 0.080249 0.434374 -1.000568
2010-05-31 07:47:07 51°11.275 2°45.366 20.4222 0.080353 0.434929 -0.965744
2010-05-31 07:47:11 51°11.265 2°45.347 20.4244 0.080249 0.434387 -1.000568
2010-05-31 07:47:16 51°11.257 2°45.316 20.4192 0.080249 0.434374 -1.000568
2010-05-31 07:47:21 51°11.249 2°45.288 20.4258 0.080249 0.434408 -1.000568
2010-05-31 07:47:27 51°11.237 2°45.255 20.4257 0.080249 0.434408 -1.000568
2010-05-31 07:47:32 51°11.23 2°45.225 20.4261 0.080249 0.434422 -0.965744
2010-05-31 07:47:36 51°11.222 2°45.204 20.4316 0.080249 0.434408 -0.965744
2010-05-31 07:47:42 51°11.212 2°45.17 20.4182 0.080249 0.434408 -0.965744
2010-05-31 07:47:47 51°11.202 2°45.142 20.4341 0.080249 0.434394 -0.93092
2010-05-31 07:47:52 51°11.193 2°45.113 20.4168 0.080249 0.434374 -1.000568
2010-05-31 07:47:56 51°11.188 2°45.091 20.4336 0.080249 0.434374 -1.000568
2010-05-31 07:48:01 51°11.177 2°45.064 20.4293 0.080249 0.434394 -1.000568
2010-05-31 07:48:07 51°11.168 2°45.03 20.4305 0.080249 0.434381 -1.035392
2010-05-31 07:48:12 51°11.158 2°45.003 20.4352 0.080249 0.434401 -0.965744
2010-05-31 07:48:16 51°11.151 2°44.98 20.4353 0.080249 0.434394 -0.965744
2010-05-31 07:48:22 51°11.14 2°44.947 20.4386 0.080249 0.434401 -0.93092
2010-05-31 07:48:26 51°11.133 2°44.925 20.4377 0.080249 0.434401 -0.93092
2010-05-31 07:48:31 51°11.124 2°44.897 20.4391 0.080249 0.434394 -0.965744
2010-05-31 07:48:36 51°11.115 2°44.869 20.4407 0.080249 0.434387 -1.000568
2010-05-31 07:48:41 51°11.106 2°44.841 20.4415 0.080249 0.434381 -0.965744
2010-05-31 07:48:47 51°11.095 2°44.808 20.4436 0.080249 0.434387 -1.000568
2010-05-31 07:48:51 51°11.088 2°44.785 20.4427 0.080249 0.434381 -0.965744
2010-05-31 07:48:56 51°11.078 2°44.758 20.4455 0.080249 0.434381 -0.965744
2010-05-31 07:49:01 51°11.069 2°44.729 20.4455 0.080249 0.434394 -0.965744
2010-05-31 07:49:07 51°11.058 2°44.696 20.4473 0.080249 0.434401 -0.965744
2010-05-31 07:49:11 51°11.051 2°44.674 20.4478 0.080249 0.434401 -0.965744
2010-05-31 07:49:16 51°11.042 2°44.646 20.4516 0.080249 0.434394 -1.000568
2010-05-31 07:49:22 51°11.03 2°44.612 20.4478 0.080249 0.434408 -1.000568
2010-05-31 07:49:27 51°11.021 2°44.585 20.4536 0.080249 0.434408 -1.000568
2010-05-31 07:49:31 51°11.013 2°44.563 20.4524 0.080249 0.434422 -0.965744
2010-05-31 07:49:36 51°11.005 2°44.535 20.4549 0.080249 0.434401 -0.965744
2010-05-31 07:49:41 51°10.996 2°44.508 20.4564 0.080249 0.434422 -0.965744
2010-05-31 07:49:47 51°10.985 2°44.474 20.4555 0.080249 0.434429 -0.965744
2010-05-31 07:49:51 51°10.978 2°44.451 20.4591 0.080249 0.434422 -0.965744
2010-05-31 07:49:56 51°10.968 2°44.424 20.4564 0.080249 0.434422 -0.965744
2010-05-31 07:50:01 51°10.959 2°44.396 20.4608 0.080249 0.434408 -1.000568
2010-05-31 07:50:07 51°10.948 2°44.362 20.4584 0.080249 0.434429 -0.965744
2010-05-31 07:50:12 51°10.94 2°44.335 20.4627 0.080249 0.434415 -1.035392
2010-05-31 07:50:16 51°10.931 2°44.314 20.4641 0.080249 0.434443 -0.965744
2010-05-31 07:50:22 51°10.922 2°44.279 20.466 0.080249 0.434429 -0.965744
2010-05-31 07:50:27 51°10.911 2°44.251 20.464 0.080249 0.434429 -0.965744
2010-05-31 07:50:32 51°10.903 2°44.223 20.4681 0.080249 0.434429 -0.965744
2010-05-31 07:50:36 51°10.895 2°44.201 20.4669 0.080249 0.434449 -0.965744
2010-05-31 07:50:41 51°10.887 2°44.172 20.4712 0.080249 0.434436 -1.000568
2010-05-31 07:50:47 51°10.875 2°44.139 20.4663 0.080249 0.43447 -1.000568
2010-05-31 07:50:51 51°10.87 2°44.117 20.4712 0.080249 0.434436 -1.000568
2010-05-31 07:50:56 51°10.859 2°44.091 20.4739 0.080249 0.434463 -1.000568
2010-05-31 07:51:02 51°10.849 2°44.056 20.4733 0.080249 0.434463 -1.000568
2010-05-31 07:51:07 51°10.839 2°44.028 20.4718 0.080249 0.434456 -1.000568
2010-05-31 07:51:11 51°10.833 2°44.005 20.476 0.080249 0.434463 -0.965744
2010-05-31 07:51:16 51°10.823 2°43.978 20.4752 0.080249 0.43447 -0.965744
2010-05-31 07:51:22 51°10.814 2°43.945 20.4778 0.080249 0.434456 -1.000568
2010-05-31 07:51:27 51°10.804 2°43.917 20.4794 0.080249 0.434456 -1.000568
2010-05-31 07:51:31 51°10.796 2°43.895 20.4739 0.080249 0.434491 -0.965744
2010-05-31 07:51:36 51°10.788 2°43.866 20.4838 0.080249 0.434456 -1.000568
2010-05-31 07:51:41 51°10.779 2°43.839 20.4765 0.080249 0.434477 -1.000568
2010-05-31 07:51:47 51°10.768 2°43.806 20.4847 0.080249 0.43447 -0.965744
2010-05-31 07:51:51 51°10.761 2°43.783 20.4824 0.080249 0.434449 -1.000568
2010-05-31 07:51:56 51°10.751 2°43.756 20.4857 0.080249 0.434449 -1.000568
2010-05-31 07:52:01 51°10.743 2°43.728 20.4857 0.080249 0.434484 -0.93092
2010-05-31 07:52:07 51°10.731 2°43.695 20.4889 0.080249 0.434484 -0.965744
2010-05-31 07:52:11 51°10.724 2°43.673 20.487 0.080249 0.434477 -0.965744
2010-05-31 07:52:16 51°10.716 2°43.646 20.4924 0.080249 0.434477 -1.000568
2010-05-31 07:52:21 51°10.707 2°43.618 20.4903 0.080249 0.434477 -0.93092
2010-05-31 07:52:26 51°10.698 2°43.589 20.4917 0.080249 0.434477 -0.93092
2010-05-31 07:52:31 51°10.688 2°43.562 20.4909 0.080249 0.434477 -0.965744
2010-05-31 07:52:36 51°10.68 2°43.533 20.4933 0.080249 0.434477 -0.965744
2010-05-31 07:52:41 51°10.671 2°43.507 20.4987 0.080249 0.43447 -1.000568
2010-05-31 07:52:47 51°10.66 2°43.473 20.494 0.080249 0.434463 -1.000568
2010-05-31 07:52:52 51°10.651 2°43.445 20.5003 0.080249 0.434491 -0.965744
2010-05-31 07:52:56 51°10.643 2°43.423 20.4965 0.080249 0.434491 -0.965744
2010-05-31 07:53:02 51°10.634 2°43.389 20.4997 0.080249 0.434456 -1.000568
2010-05-31 07:53:07 51°10.624 2°43.363 20.4924 0.080249 0.434491 -1.000568
2010-05-31 07:53:11 51°10.616 2°43.341 20.4994 0.080249 0.434463 -0.965744
2010-05-31 07:53:16 51°10.603 2°43.32 20.4906 0.080249 0.434525 -0.965744
2010-05-31 07:53:22 51°10.588 2°43.295 20.4832 0.080249 0.434512 -1.000568
2010-05-31 07:53:27 51°10.574 2°43.277 20.5022 0.080249 0.434512 -1.000568
2010-05-31 07:53:31 51°10.562 2°43.265 20.4881 0.080249 0.434518 -0.965744
2010-05-31 07:53:36 51°10.548 2°43.253 20.5035 0.080249 0.434512 -1.000568
2010-05-31 07:53:40 51°10.536 2°43.25 20.4906 0.080249 0.434567 -0.965744
2010-05-31 07:53:47 51°10.514 2°43.239 20.5106 0.080249 0.434539 -1.000568
2010-05-31 07:53:51 51°10.502 2°43.238 20.4733 0.080249 0.434546 -0.965744
2010-05-31 07:53:56 51°10.487 2°43.234 20.5122 0.080249 0.434546 -0.965744
2010-05-31 07:54:01 51°10.472 2°43.234 20.4957 0.080249 0.434587 -0.965744
2010-05-31 07:54:07 51°10.455 2°43.232 20.494 0.080249 0.434532 -1.000568
2010-05-31 07:54:11 51°10.444 2°43.235 20.5171 0.080249 0.434574 -1.000568
2010-05-31 07:54:16 51°10.43 2°43.235 20.5041 0.080249 0.434581 -1.035392
2010-05-31 07:54:21 51°10.417 2°43.235 20.5231 0.080249 0.434567 -0.965744
2010-05-31 07:54:26 51°10.404 2°43.233 20.5051 0.080249 0.434567 -0.965744
2010-05-31 07:54:32 51°10.39 2°43.223 20.526 0.080249 0.434546 -1.000568
2010-05-31 07:54:36 51°10.38 2°43.218 20.5156 0.080249 0.434532 -0.965744
2010-05-31 07:54:42 51°10.369 2°43.204 20.5025 0.080249 0.434512 -1.000568
2010-05-31 07:54:46 51°10.361 2°43.195 20.5128 0.080249 0.434525 -0.965744
2010-05-31 07:54:52 51°10.351 2°43.179 20.5054 0.080249 0.434518 -0.965744
2010-05-31 07:54:56 51°10.344 2°43.17 20.5284 0.080249 0.434518 -0.965744
2010-05-31 07:55:01 51°10.336 2°43.155 20.514 0.080249 0.434567 -0.965744
2010-05-31 07:55:06 51°10.33 2°43.14 20.5365 0.080249 0.434546 -0.965744
2010-05-31 07:55:11 51°10.324 2°43.124 20.5213 0.080249 0.43456 -0.965744
2010-05-31 07:55:16 51°10.321 2°43.108 20.5301 0.080249 0.434553 -0.965744
2010-05-31 07:55:21 51°10.317 2°43.092 20.5241 0.080249 0.434553 -1.000568
2010-05-31 07:55:27 51°10.315 2°43.073 20.5208 0.080249 0.434553 -1.000568
2010-05-31 07:55:31 51°10.316 2°43.061 20.5198 0.080249 0.434574 -1.000568
2010-05-31 07:55:36 51°10.316 2°43.046 20.5274 0.080249 0.434567 -1.000568
2010-05-31 07:55:41 51°10.317 2°43.031 20.5315 0.080249 0.434567 -1.000568
2010-05-31 07:55:47 51°10.319 2°43.014 20.5274 0.080249 0.434567 -1.000568
2010-05-31 07:55:51 51°10.322 2°43.004 20.5345 0.080249 0.434567 -1.000568
2010-05-31 07:55:56 51°10.325 2°42.993 20.5272 0.080249 0.434567 -1.000568
2010-05-31 07:56:02 51°10.331 2°42.98 20.5278 0.080249 0.434581 -0.965744
2010-05-31 07:56:07 51°10.335 2°42.971 20.5269 0.080249 0.434567 -0.965744
2010-05-31 07:56:11 51°10.34 2°42.964 20.5261 0.080249 0.434581 -0.965744
2010-05-31 07:56:16 51°10.345 2°42.958 20.5194 0.080249 0.434581 -1.000568
2010-05-31 07:56:21 51°10.349 2°42.952 20.5231 0.080249 0.434601 -1.000568
2010-05-31 07:56:27 51°10.354 2°42.946 20.5204 0.080249 0.434587 -1.000568
2010-05-31 07:56:32 51°10.357 2°42.942 20.5244 0.080249 0.434587 -1.000568
2010-05-31 07:56:36 51°10.359 2°42.939 20.5238 0.080249 0.434587 -0.965744
2010-05-31 07:56:42 51°10.362 2°42.936 20.5183 0.080249 0.43456 -0.965744
2010-05-31 07:56:47 51°10.363 2°42.934 20.5204 0.080249 0.43456 -0.965744
2010-05-31 07:56:52 51°10.365 2°42.932 20.5239 0.080249 0.434567 -1.000568
2010-05-31 07:56:56 51°10.366 2°42.931 20.5268 0.080249 0.434567 -1.000568
2010-05-31 07:57:01 51°10.366 2°42.93 20.5231 0.080249 0.434574 -1.000568
2010-05-31 07:57:07 51°10.367 2°42.928 20.5214 0.080249 0.434553 -0.965744
2010-05-31 07:57:11 51°10.367 2°42.928 20.5292 0.080249 0.434567 -1.000568
2010-05-31 07:57:16 51°10.367 2°42.927 20.5253 0.080249 0.434567 -0.965744
2010-05-31 07:57:22 51°10.367 2°42.926 20.5324 0.080249 0.434594 -0.965744
2010-05-31 07:57:26 51°10.366 2°42.926 20.5269 0.080249 0.434594 -0.965744
2010-05-31 07:57:31 51°10.366 2°42.925 20.534 0.080249 0.434587 -1.000568
2010-05-31 07:57:36 51°10.366 2°42.924 20.5349 0.080249 0.434587 -1.000568
2010-05-31 07:57:41 51°10.366 2°42.923 20.5333 0.080249 0.434587 -1.000568
2010-05-31 07:57:47 51°10.365 2°42.923 20.5327 0.080249 0.434601 -1.000568
2010-05-31 07:57:51 51°10.365 2°42.923 20.5358 0.080249 0.434594 -0.965744
2010-05-31 07:57:56 51°10.364 2°42.922 20.5404 0.080249 0.434594 -0.965744
2010-05-31 07:58:02 51°10.364 2°42.921 20.5368 0.080249 0.434587 -0.965744
2010-05-31 07:58:07 51°10.363 2°42.92 20.541 0.080249 0.434581 -0.965744
2010-05-31 07:58:11 51°10.362 2°42.92 20.544 0.080249 0.434601 -1.000568
2010-05-31 07:58:16 51°10.362 2°42.919 20.5436 0.080249 0.434608 -1.000568
2010-05-31 07:58:22 51°10.361 2°42.918 20.5399 0.080249 0.434608 -0.965744
2010-05-31 07:58:27 51°10.36 2°42.918 20.5438 0.080249 0.434608 -0.965744
2010-05-31 07:58:31 51°10.36 2°42.917 20.5478 0.080249 0.434601 -1.000568
2010-05-31 07:58:36 51°10.359 2°42.916 20.5486 0.080249 0.434608 -0.965744
2010-05-31 07:58:41 51°10.358 2°42.915 20.5462 0.080249 0.434608 -0.965744
2010-05-31 07:58:46 51°10.357 2°42.914 20.5513 0.080249 0.434594 -1.000568
2010-05-31 07:58:51 51°10.356 2°42.913 20.5518 0.080249 0.434608 -0.965744
2010-05-31 07:58:56 51°10.355 2°42.911 20.5499 0.080249 0.434608 -0.965744
2010-05-31 07:59:01 51°10.354 2°42.911 20.5479 0.080249 0.434615 -1.035392
2010-05-31 07:59:06 51°10.352 2°42.91 20.5513 0.080249 0.434608 -1.000568
2010-05-31 07:59:11 51°10.351 2°42.909 20.5513 0.080249 0.434615 -1.035392
2010-05-31 07:59:16 51°10.35 2°42.908 20.5521 0.080249 0.434608 -0.965744
2010-05-31 07:59:21 51°10.349 2°42.907 20.5559 0.080249 0.434608 -0.965744
2010-05-31 07:59:26 51°10.348 2°42.905 20.5558 0.080249 0.434608 -0.965744
2010-05-31 07:59:31 51°10.346 2°42.904 20.5563 0.080249 0.434608 -1.000568
2010-05-31 07:59:36 51°10.344 2°42.903 20.5577 0.080249 0.434615 -1.000568
2010-05-31 07:59:41 51°10.343 2°42.902 20.5581 0.080249 0.434622 -0.965744
2010-05-31 07:59:47 51°10.342 2°42.9 20.5582 0.080249 0.434629 -1.000568
2010-05-31 07:59:52 51°10.341 2°42.899 20.5603 0.080249 0.434608 -1.000568
2010-05-31 07:59:56 51°10.34 2°42.898 20.5597 0.080249 0.434608 -1.000568
2010-05-31 08:00:02 51°10.338 2°42.896 20.5621 0.080249 0.434608 -1.000568
2010-05-31 08:00:07 51°10.336 2°42.896 20.5629 0.080249 0.434629 -0.965744
2010-05-31 08:00:11 51°10.335 2°42.894 20.5648 0.080249 0.434608 -1.000568
2010-05-31 08:00:16 51°10.333 2°42.893 20.564 0.080249 0.434615 -0.965744
2010-05-31 08:00:22 51°10.332 2°42.89 20.5656 0.080249 0.43465 -1.000568
2010-05-31 08:00:27 51°10.33 2°42.89 20.5665 0.080249 0.43465 -1.000568
2010-05-31 08:00:32 51°10.329 2°42.887 20.5679 0.080249 0.434636 -1.000568
2010-05-31 08:00:36 51°10.327 2°42.887 20.5681 0.080249 0.434643 -1.000568
2010-05-31 08:00:42 51°10.326 2°42.884 20.5686 0.080249 0.434629 -0.965744
2010-05-31 08:00:47 51°10.323 2°42.883 20.5699 0.080249 0.434622 -0.965744
2010-05-31 08:00:51 51°10.323 2°42.881 20.5689 0.080249 0.43465 -1.000568
2010-05-31 08:00:56 51°10.32 2°42.88 20.5729 0.080249 0.43465 -1.000568
2010-05-31 08:01:01 51°10.32 2°42.878 20.5717 0.080249 0.434643 -1.000568
2010-05-31 08:01:07 51°10.318 2°42.875 20.5746 0.080249 0.43465 -1.035392
2010-05-31 08:01:12 51°10.316 2°42.874 20.5752 0.080249 0.434636 -1.000568
2010-05-31 08:01:16 51°10.314 2°42.872 20.5751 0.080249 0.434636 -1.000568
2010-05-31 08:01:22 51°10.313 2°42.87 20.5768 0.080249 0.434622 -0.965744
2010-05-31 08:01:26 51°10.311 2°42.869 20.5777 0.080249 0.434622 -0.965744
2010-05-31 08:01:31 51°10.309 2°42.867 20.5789 0.080249 0.434622 -0.965744
2010-05-31 08:01:36 51°10.307 2°42.865 20.5797 0.080249 0.434622 -0.965744
2010-05-31 08:01:41 51°10.305 2°42.863 20.5807 0.080249 0.434629 -1.000568
2010-05-31 08:01:46 51°10.303 2°42.862 20.5814 0.080249 0.434629 -0.965744
2010-05-31 08:01:51 51°10.301 2°42.86 20.5819 0.080249 0.434636 -0.965744
2010-05-31 08:01:56 51°10.299 2°42.858 20.5838 0.080249 0.434643 -1.000568
2010-05-31 08:02:01 51°10.297 2°42.856 20.5839 0.080249 0.434643 -1.000568
2010-05-31 08:02:07 51°10.295 2°42.854 20.5849 0.080249 0.434656 -0.965744
2010-05-31 08:02:12 51°10.293 2°42.852 20.5868 0.080249 0.434663 -0.965744
2010-05-31 08:02:16 51°10.292 2°42.851 20.5867 0.080249 0.434656 -0.965744
2010-05-31 08:02:22 51°10.29 2°42.848 20.5876 0.080249 0.434656 -1.000568
2010-05-31 08:02:27 51°10.289 2°42.846 20.5892 0.080249 0.434656 -1.000568
2010-05-31 08:02:31 51°10.287 2°42.845 20.5898 0.080249 0.434656 -1.000568
2010-05-31 08:02:36 51°10.285 2°42.842 20.591 0.080249 0.43465 -0.965744
2010-05-31 08:02:42 51°10.283 2°42.84 20.5918 0.080249 0.434643 -1.000568
2010-05-31 08:02:47 51°10.281 2°42.838 20.5919 0.080249 0.434663 -1.000568
2010-05-31 08:02:52 51°10.28 2°42.836 20.5954 0.080249 0.434656 -1.000568
2010-05-31 08:02:56 51°10.278 2°42.834 20.5957 0.080249 0.434656 -1.000568
2010-05-31 08:03:01 51°10.277 2°42.832 20.5964 0.080249 0.434684 -1.000568
2010-05-31 08:03:07 51°10.274 2°42.831 20.5964 0.080249 0.43467 -1.000568
2010-05-31 08:03:11 51°10.273 2°42.831 20.5967 0.080249 0.434677 -1.000568
2010-05-31 08:03:16 51°10.272 2°42.83 20.5974 0.080249 0.434677 -1.000568
2010-05-31 08:03:22 51°10.27 2°42.83 20.5988 0.080249 0.434684 -1.000568
2010-05-31 08:03:27 51°10.269 2°42.831 20.6002 0.080249 0.434698 -1.000568
2010-05-31 08:03:31 51°10.269 2°42.832 20.5997 0.080249 0.434698 -1.000568
2010-05-31 08:03:36 51°10.268 2°42.834 20.6023 0.080249 0.434684 -0.965744
2010-05-31 08:03:41 51°10.267 2°42.837 20.6023 0.080249 0.434698 -1.000568
2010-05-31 08:03:47 51°10.267 2°42.84 20.6043 0.080249 0.434698 -1.000568
2010-05-31 08:03:52 51°10.267 2°42.844 20.606 0.080249 0.434691 -1.000568
2010-05-31 08:03:56 51°10.268 2°42.849 20.6063 0.080249 0.434691 -1.000568
2010-05-31 08:04:02 51°10.269 2°42.855 20.6059 0.080249 0.434698 -0.965744
2010-05-31 08:04:07 51°10.271 2°42.86 20.6074 0.080249 0.434705 -0.965744
2010-05-31 08:04:11 51°10.272 2°42.866 20.6075 0.080249 0.434712 -0.965744
2010-05-31 08:04:17 51°10.276 2°42.873 20.6074 0.080249 0.434712 -1.000568
2010-05-31 08:04:22 51°10.279 2°42.882 20.6059 0.080249 0.434705 -1.000568
2010-05-31 08:04:26 51°10.283 2°42.887 20.6091 0.080249 0.434705 -1.000568
2010-05-31 08:04:31 51°10.287 2°42.896 20.6075 0.080249 0.434712 -0.965744
2010-05-31 08:04:36 51°10.292 2°42.904 20.6084 0.080249 0.434691 -0.965744
2010-05-31 08:04:42 51°10.298 2°42.916 20.6098 0.080249 0.434684 -1.000568
2010-05-31 08:04:47 51°10.304 2°42.927 20.6082 0.080249 0.434677 -0.965744
2010-05-31 08:04:51 51°10.309 2°42.937 20.6093 0.080249 0.434705 -0.965744
2010-05-31 08:04:56 51°10.315 2°42.949 20.6095 0.080249 0.434705 -0.965744
2010-05-31 08:05:02 51°10.323 2°42.965 20.6094 0.080249 0.434684 -1.000568
2010-05-31 08:05:07 51°10.33 2°42.978 20.6103 0.080249 0.434698 -1.000568
2010-05-31 08:05:12 51°10.337 2°42.993 20.6107 0.080249 0.434705 -1.000568
2010-05-31 08:05:16 51°10.343 2°43.005 20.6098 0.080249 0.434725 -0.965744
2010-05-31 08:05:22 51°10.353 2°43.023 20.6115 0.080249 0.434739 -0.965744
2010-05-31 08:05:27 51°10.361 2°43.039 20.6136 0.080249 0.434739 -0.965744
2010-05-31 08:05:31 51°10.367 2°43.052 20.6132 0.080249 0.434719 -0.965744
2010-05-31 08:05:36 51°10.376 2°43.068 20.6147 0.080249 0.434739 -0.965744
2010-05-31 08:05:41 51°10.384 2°43.086 20.614 0.080249 0.434725 -1.000568
2010-05-31 08:05:46 51°10.393 2°43.103 20.6169 0.080249 0.434719 -1.000568
2010-05-31 08:05:52 51°10.403 2°43.124 20.6164 0.080249 0.434725 -0.965744
2010-05-31 08:05:56 51°10.41 2°43.139 20.619 0.080249 0.434725 -0.965744
2010-05-31 08:06:01 51°10.418 2°43.158 20.6163 0.080249 0.434719 -0.965744
2010-05-31 08:06:06 51°10.429 2°43.175 20.6209 0.080249 0.434774 -0.965744
2010-05-31 08:06:11 51°10.438 2°43.194 20.6189 0.080249 0.434739 -0.965744
2010-05-31 08:06:16 51°10.447 2°43.213 20.6216 0.080249 0.434753 -0.965744
2010-05-31 08:06:21 51°10.457 2°43.232 20.6241 0.080249 0.434781 -1.000568
2010-05-31 08:06:26 51°10.466 2°43.252 20.623 0.080249 0.434781 -1.000568
2010-05-31 08:06:31 51°10.476 2°43.27 20.6223 0.080249 0.434774 -0.965744
2010-05-31 08:06:36 51°10.485 2°43.29 20.6252 0.080249 0.434774 -0.965744
2010-05-31 08:06:42 51°10.496 2°43.314 20.6269 0.080249 0.434788 -0.965744
2010-05-31 08:06:47 51°10.506 2°43.333 20.6275 0.080249 0.434788 -1.000568
2010-05-31 08:06:51 51°10.513 2°43.35 20.6269 0.080249 0.434753 -1.035392
2010-05-31 08:06:56 51°10.523 2°43.369 20.6284 0.080249 0.434753 -1.035392
2010-05-31 08:07:02 51°10.533 2°43.394 20.6281 0.080249 0.434753 -1.000568
2010-05-31 08:07:07 51°10.543 2°43.413 20.6293 0.080249 0.434732 -0.965744
2010-05-31 08:07:11 51°10.551 2°43.428 20.6305 0.080249 0.434753 -0.965744
2010-05-31 08:07:16 51°10.559 2°43.45 20.6302 0.080249 0.434753 -1.000568
2010-05-31 08:07:22 51°10.57 2°43.475 20.6328 0.080249 0.434739 -0.965744
2010-05-31 08:07:27 51°10.578 2°43.495 20.6333 0.080249 0.434739 -0.965744
2010-05-31 08:07:31 51°10.586 2°43.511 20.6329 0.080249 0.434795 -1.000568
2010-05-31 08:07:36 51°10.593 2°43.534 20.6364 0.080249 0.434774 -1.000568
2010-05-31 08:07:41 51°10.604 2°43.553 20.6328 0.080249 0.434822 -0.965744
2010-05-31 08:07:47 51°10.613 2°43.58 20.6374 0.080249 0.434788 -1.000568
2010-05-31 08:07:51 51°10.621 2°43.596 20.638 0.080249 0.434815 -1.000568
2010-05-31 08:07:56 51°10.629 2°43.618 20.6374 0.080249 0.434815 -1.000568
2010-05-31 08:08:01 51°10.637 2°43.64 20.6392 0.080249 0.434781 -0.965744
2010-05-31 08:08:07 51°10.648 2°43.665 20.6398 0.080249 0.434795 -1.000568
2010-05-31 08:08:12 51°10.656 2°43.687 20.6418 0.080249 0.434739 -0.965744
2010-05-31 08:08:16 51°10.663 2°43.704 20.6414 0.080249 0.434739 -1.000568
2010-05-31 08:08:22 51°10.672 2°43.731 20.6425 0.080249 0.434719 -1.000568
2010-05-31 08:08:27 51°10.681 2°43.753 20.6439 0.080249 0.434719 -1.000568
2010-05-31 08:08:31 51°10.688 2°43.77 20.6449 0.080145 0.434183 -1.000568
2010-05-31 08:08:36 51°10.695 2°43.793 20.645 0.080249 0.434739 -0.965744
2010-05-31 08:08:42 51°10.706 2°43.818 20.646 0.080249 0.434774 -0.965744
2010-05-31 08:08:47 51°10.714 2°43.841 20.6465 0.080249 0.434767 -1.000568
2010-05-31 08:08:51 51°10.722 2°43.858 20.6481 0.080249 0.434788 -0.965744
2010-05-31 08:08:56 51°10.73 2°43.88 20.6486 0.080249 0.434753 -1.000568
2010-05-31 08:09:02 51°10.74 2°43.907 20.6505 0.080249 0.434753 -1.000568
2010-05-31 08:09:06 51°10.748 2°43.924 20.6501 0.080249 0.434781 -1.000568
2010-05-31 08:09:11 51°10.756 2°43.947 20.6512 0.080249 0.434767 -1.000568
2010-05-31 08:09:16 51°10.765 2°43.968 20.6521 0.080249 0.434781 -1.000568
2010-05-31 08:09:22 51°10.775 2°43.996 20.6529 0.080249 0.434774 -0.965744
2010-05-31 08:09:27 51°10.783 2°44.018 20.6538 0.080249 0.434795 -0.965744
2010-05-31 08:09:32 51°10.792 2°44.04 20.6531 0.080249 0.434795 -0.965744
2010-05-31 08:09:36 51°10.798 2°44.058 20.6548 0.080249 0.434781 -1.000568
2010-05-31 08:09:42 51°10.809 2°44.085 20.6562 0.080145 0.434218 -1.035392
2010-05-31 08:09:47 51°10.818 2°44.107 20.6568 0.080145 0.434204 -1.000568
2010-05-31 08:09:51 51°10.824 2°44.126 20.657 0.080249 0.434774 -0.965744
2010-05-31 08:09:56 51°10.834 2°44.147 20.6583 0.080249 0.434774 -0.965744
2010-05-31 08:10:01 51°10.842 2°44.17 20.6585 0.080249 0.434808 -1.000568
2010-05-31 08:10:06 51°10.852 2°44.191 20.6612 0.080249 0.434795 -1.000568
2010-05-31 08:10:11 51°10.86 2°44.213 20.6581 0.080249 0.434801 -1.000568
2010-05-31 08:10:16 51°10.868 2°44.236 20.6619 0.080249 0.434808 -1.000568
2010-05-31 08:10:21 51°10.877 2°44.259 20.6636 0.080145 0.434273 -0.965744
2010-05-31 08:10:27 51°10.887 2°44.286 20.6641 0.080145 0.434273 -0.965744
2010-05-31 08:10:32 51°10.894 2°44.31 20.6649 0.080249 0.434864 -1.000568
2010-05-31 08:10:36 51°10.902 2°44.327 20.6658 0.080249 0.434843 -0.965744
2010-05-31 08:10:42 51°10.91 2°44.356 20.6665 0.080145 0.434252 -0.965744
2010-05-31 08:10:47 51°10.921 2°44.377 20.668 0.080249 0.434877 -0.965744
2010-05-31 08:10:51 51°10.926 2°44.397 20.667 0.080249 0.434836 -1.000568
2010-05-31 08:10:56 51°10.934 2°44.418 20.6702 0.080249 0.434836 -1.000568
2010-05-31 08:11:01 51°10.942 2°44.442 20.6684 0.080145 0.434307 -1.000568
2010-05-31 08:11:07 51°10.952 2°44.469 20.672 0.080249 0.434857 -1.000568
2010-05-31 08:11:11 51°10.959 2°44.487 20.6708 0.080145 0.4343 -0.965744
2010-05-31 08:11:16 51°10.965 2°44.511 20.6729 0.080249 0.434877 -1.000568
2010-05-31 08:11:21 51°10.974 2°44.534 20.6706 0.080145 0.43428 -1.000568
2010-05-31 08:11:27 51°10.983 2°44.562 20.6761 0.080145 0.43428 -1.000568
2010-05-31 08:11:31 51°10.99 2°44.58 20.6704 0.080145 0.4343 -1.000568
2010-05-31 08:11:36 51°10.996 2°44.604 20.6768 0.080249 0.434822 -1.000568
2010-05-31 08:11:42 51°11.007 2°44.632 20.6759 0.080249 0.434864 -1.000568
2010-05-31 08:11:47 51°11.013 2°44.656 20.6784 0.080249 0.434836 -1.000568
2010-05-31 08:11:52 51°11.022 2°44.679 20.6738 0.080249 0.434829 -0.965744
2010-05-31 08:11:56 51°11.027 2°44.698 20.6792 0.080249 0.434829 -0.965744
2010-05-31 08:12:02 51°11.038 2°44.724 20.6805 0.080249 0.43485 -1.000568
2010-05-31 08:12:06 51°11.044 2°44.743 20.6747 0.080145 0.43428 -0.965744
2010-05-31 08:12:11 51°11.051 2°44.768 20.6824 0.080249 0.434843 -0.965744
2010-05-31 08:12:16 51°11.06 2°44.79 20.6676 0.080145 0.43428 -0.965744
2010-05-31 08:12:21 51°11.065 2°44.815 20.6813 0.080249 0.43485 -1.000568
2010-05-31 08:12:26 51°11.076 2°44.836 20.6815 0.080249 0.43485 -1.000568
2010-05-31 08:12:31 51°11.082 2°44.86 20.6822 0.080145 0.43428 -1.000568
2010-05-31 08:12:36 51°11.091 2°44.883 20.68 0.080145 0.434273 -0.965744
2010-05-31 08:12:41 51°11.099 2°44.906 20.6815 0.080145 0.43428 -0.965744
2010-05-31 08:12:47 51°11.109 2°44.933 20.6837 0.080249 0.434836 -0.965744
2010-05-31 08:12:51 51°11.116 2°44.951 20.6838 0.080249 0.434836 -0.965744
2010-05-31 08:12:56 51°11.124 2°44.974 20.6851 0.080249 0.434836 -0.965744
2010-05-31 08:13:02 51°11.134 2°45.001 20.6869 0.080145 0.434245 -1.000568
2010-05-31 08:13:06 51°11.141 2°45.019 20.6804 0.080145 0.434238 -0.965744
2010-05-31 08:13:11 51°11.15 2°45.043 20.6911 0.080249 0.434822 -1.000568
2010-05-31 08:13:16 51°11.159 2°45.064 20.6884 0.080145 0.434252 -0.965744
2010-05-31 08:13:22 51°11.169 2°45.091 20.6916 0.080145 0.434294 -0.965744
2010-05-31 08:13:27 51°11.177 2°45.115 20.6951 0.080145 0.434294 -0.965744
2010-05-31 08:13:31 51°11.184 2°45.132 20.7026 0.080249 0.434857 -1.000568
2010-05-31 08:13:36 51°11.194 2°45.154 20.6918 0.080145 0.434321 -0.965744
2010-05-31 08:13:41 51°11.201 2°45.178 20.6969 0.080249 0.434864 -1.000568
2010-05-31 08:13:47 51°11.212 2°45.205 20.6919 0.080145 0.434328 -1.000568
2010-05-31 08:13:51 51°11.218 2°45.223 20.6939 0.080145 0.434307 -1.000568
2010-05-31 08:13:56 51°11.226 2°45.246 20.6978 0.080145 0.434307 -1.000568
2010-05-31 08:14:01 51°11.236 2°45.268 20.693 0.080145 0.434321 -0.965744
2010-05-31 08:14:07 51°11.245 2°45.295 20.6971 0.080145 0.434273 -1.000568
2010-05-31 08:14:12 51°11.254 2°45.318 20.6979 0.080145 0.434294 -1.000568
2010-05-31 08:14:16 51°11.261 2°45.336 20.6967 0.080249 0.434857 -1.000568
2010-05-31 08:14:22 51°11.271 2°45.363 20.6996 0.080145 0.4343 -1.000568